| time (UTC) | temp F | wind direction | speed knots | gust knots | rain 1hr in | rain 24hr in | rain mn in | humidity % | barometer mb |
| 20260509011608 | 49 | 224 | 1.7 | 6.1 | 0.00 | 0.05 | 0.05 | 70 | 1009.0 |
| 20260509011408 | 49 | 222 | 1.7 | 6.1 | 0.00 | 0.05 | 0.05 | 69 | 1009.1 |
| 20260509011207 | 49 | 221 | 1.7 | 6.1 | 0.00 | 0.05 | 0.05 | 69 | 1009.1 |
| 20260509011007 | 49 | 220 | 2.6 | 6.1 | 0.00 | 0.05 | 0.05 | 69 | 1009.0 |
| 20260509010807 | 49 | 223 | 1.7 | 7.0 | 0.00 | 0.05 | 0.05 | 69 | 1009.0 |
| 20260509010606 | 49 | 223 | 1.7 | 7.0 | 0.00 | 0.05 | 0.05 | 68 | 1009.0 |
| 20260509010406 | 50 | 215 | 0.9 | 7.0 | 0.00 | 0.05 | 0.05 | 68 | 1009.1 |
| 20260509010206 | 50 | 216 | 1.7 | 7.0 | 0.00 | 0.05 | 0.05 | 68 | 1009.0 |
| 20260509010005 | 50 | 218 | 2.6 | 7.0 | 0.00 | 0.05 | 0.05 | 68 | 1009.0 |
| 20260509005805 | 50 | 228 | 1.7 | 6.1 | 0.00 | 0.05 | 0.05 | 68 | 1009.0 |
| 20260509005605 | 50 | 229 | 2.6 | 6.1 | 0.00 | 0.05 | 0.05 | 67 | 1009.0 |
| 20260509005405 | 50 | 224 | 2.6 | 6.1 | 0.00 | 0.05 | 0.05 | 67 | 1009.0 |
| 20260509005204 | 50 | 222 | 2.6 | 6.1 | 0.00 | 0.05 | 0.05 | 67 | 1009.0 |
| 20260509005004 | 50 | 225 | 2.6 | 6.1 | 0.00 | 0.05 | 0.05 | 66 | 1009.0 |
| 20260509004925 | 50 | 225 | 2.6 | 6.1 | 0.00 | 0.05 | 0.05 | 66 | 1009.0 |
| 20260509004724 | 50 | 220 | 2.6 | 7.0 | 0.00 | 0.05 | 0.05 | 66 | 1009.0 |
| 20260509004524 | 50 | 220 | 1.7 | 7.0 | 0.00 | 0.05 | 0.05 | 66 | 1009.1 |
| 20260509004324 | 50 | 218 | 2.6 | 7.0 | 0.00 | 0.05 | 0.05 | 65 | 1009.1 |
| 20260509004123 | 50 | 205 | 3.5 | 7.0 | 0.00 | 0.05 | 0.05 | 65 | 1009.0 |
| 20260509003923 | 51 | 222 | 3.5 | 7.0 | 0.00 | 0.05 | 0.05 | 65 | 1009.1 |
| 20260509003723 | 51 | 236 | 2.6 | 7.0 | 0.00 | 0.05 | 0.05 | 64 | 1009.0 |
| 20260509003523 | 51 | 231 | 2.6 | 7.0 | 0.00 | 0.05 | 0.05 | 64 | 1009.1 |
| 20260509003322 | 51 | 223 | 3.5 | 7.0 | 0.00 | 0.05 | 0.05 | 64 | 1009.1 |
| 20260509003122 | 51 | 226 | 2.6 | 6.1 | 0.00 | 0.05 | 0.05 | 64 | 1009.0 |
| 20260509002922 | 51 | 238 | 1.7 | 6.1 | 0.00 | 0.05 | 0.05 | 64 | 1009.1 |
| 20260509002721 | 51 | 233 | 2.6 | 6.1 | 0.00 | 0.05 | 0.05 | 63 | 1009.0 |
| 20260509002521 | 51 | 233 | 2.6 | 6.1 | 0.00 | 0.05 | 0.05 | 63 | 1009.1 |
| 20260509002321 | 51 | 234 | 2.6 | 6.1 | 0.00 | 0.05 | 0.05 | 62 | 1009.1 |
| 20260509002120 | 52 | 232 | 1.7 | 6.1 | 0.00 | 0.05 | 0.05 | 62 | 1009.1 |
| 20260509001920 | 52 | 228 | 2.6 | 6.1 | 0.00 | 0.05 | 0.05 | 62 | 1009.1 |
| 20260509001720 | 52 | 235 | 1.7 | 6.1 | 0.00 | 0.05 | 0.05 | 61 | 1009.1 |
| 20260509001520 | 52 | 226 | 1.7 | 7.0 | 0.00 | 0.05 | 0.05 | 61 | 1009.0 |
| 20260509001319 | 52 | 230 | 1.7 | 7.0 | 0.00 | 0.05 | 0.05 | 61 | 1009.0 |
| 20260509001119 | 52 | 217 | 1.7 | 7.0 | 0.00 | 0.05 | 0.05 | 61 | 1009.0 |
| 20260509000919 | 52 | 223 | 2.6 | 7.0 | 0.00 | 0.05 | 0.05 | 60 | 1009.1 |
| 20260509000718 | 52 | 237 | 1.7 | 7.0 | 0.00 | 0.05 | 0.05 | 60 | 1009.1 |
| 20260509000518 | 52 | 227 | 2.6 | 7.0 | 0.00 | 0.05 | 0.05 | 60 | 1009.0 |
| 20260509000318 | 53 | 225 | 2.6 | 7.0 | 0.00 | 0.05 | 0.05 | 60 | 1009.0 |
| 20260509000117 | 53 | 228 | 3.5 | 7.8 | 0.00 | 0.05 | 0.05 | 59 | 1009.0 |
| 20260508235917 | 53 | 226 | 2.6 | 7.8 | 0.00 | 0.05 | 0.05 | 59 | 1008.9 |
| 20260508235717 | 53 | 227 | 2.6 | 7.8 | 0.00 | 0.05 | 0.05 | 59 | 1008.9 |
| 20260508235517 | 53 | 224 | 4.3 | 10.4 | 0.00 | 0.05 | 0.05 | 59 | 1008.9 |
| 20260508235316 | 53 | 216 | 3.5 | 11.3 | 0.00 | 0.05 | 0.05 | 59 | 1008.9 |
| 20260508235116 | 53 | 227 | 3.5 | 11.3 | 0.00 | 0.05 | 0.05 | 59 | 1008.9 |
| 20260508234916 | 53 | 227 | 2.6 | 11.3 | 0.00 | 0.05 | 0.05 | 58 | 1008.9 |
| 20260508234715 | 53 | 226 | 4.3 | 11.3 | 0.00 | 0.05 | 0.05 | 58 | 1008.9 |
| 20260508234515 | 54 | 223 | 3.5 | 11.3 | 0.00 | 0.05 | 0.05 | 58 | 1008.9 |
| 20260508234315 | 54 | 220 | 2.6 | 9.6 | 0.00 | 0.05 | 0.05 | 58 | 1008.8 |
| 20260508234108 | 54 | 213 | 3.5 | 9.6 | 0.00 | 0.05 | 0.05 | 58 | 1008.9 |
| 20260508233908 | 54 | 214 | 4.3 | 9.6 | 0.00 | 0.05 | 0.05 | 57 | 1008.9 |
| 20260508233708 | 54 | 217 | 4.3 | 9.6 | 0.00 | 0.05 | 0.05 | 58 | 1008.7 |
| 20260508233507 | 54 | 230 | 2.6 | 9.6 | 0.00 | 0.05 | 0.05 | 58 | 1008.7 |
| 20260508233307 | 54 | 214 | 3.5 | 8.7 | 0.00 | 0.05 | 0.05 | 58 | 1008.7 |
| 20260508233107 | 54 | 224 | 3.5 | 8.7 | 0.00 | 0.05 | 0.05 | 57 | 1008.7 |
| 20260508232906 | 54 | 226 | 2.6 | 10.4 | 0.00 | 0.05 | 0.05 | 57 | 1008.7 |
| 20260508232706 | 54 | 217 | 3.5 | 10.4 | 0.00 | 0.05 | 0.05 | 57 | 1008.6 |
| 20260508232506 | 54 | 210 | 3.5 | 10.4 | 0.00 | 0.05 | 0.05 | 56 | 1008.6 |
| 20260508232307 | 54 | 216 | 4.3 | 11.3 | 0.00 | 0.05 | 0.05 | 56 | 1008.8 |
| 20260508232105 | 54 | 198 | 4.3 | 12.2 | 0.00 | 0.05 | 0.05 | 56 | 1008.8 |
| 20260508231905 | 54 | 209 | 4.3 | 12.2 | 0.00 | 0.05 | 0.05 | 56 | 1008.7 |
| 20260508231704 | 54 | 209 | 4.3 | 12.2 | 0.00 | 0.05 | 0.05 | 56 | 1008.8 |
| 20260508231504 | 54 | 210 | 5.2 | 12.2 | 0.00 | 0.05 | 0.05 | 56 | 1008.7 |
| 20260508231304 | 54 | 223 | 2.6 | 12.2 | 0.00 | 0.05 | 0.05 | 55 | 1008.7 |
| 20260508231104 | 54 | 226 | 3.5 | 12.2 | 0.00 | 0.05 | 0.05 | 55 | 1008.7 |
| 20260508230903 | 54 | 207 | 7.0 | 13.0 | 0.00 | 0.05 | 0.05 | 54 | 1008.7 |
| 20260508230703 | 55 | 212 | 7.0 | 13.0 | 0.00 | 0.05 | 0.05 | 53 | 1008.7 |
| 20260508230503 | 55 | 207 | 6.1 | 13.0 | 0.00 | 0.05 | 0.05 | 54 | 1008.7 |
| 20260508230302 | 55 | 213 | 5.2 | 13.0 | 0.00 | 0.05 | 0.05 | 54 | 1008.8 |
| 20260508225902 | 55 | 225 | 6.1 | 13.0 | 0.00 | 0.05 | 0.05 | 53 | 1008.8 |
| 20260508225701 | 56 | 227 | 5.2 | 13.0 | 0.00 | 0.05 | 0.05 | 52 | 1008.7 |
| 20260508225501 | 56 | 228 | 5.2 | 13.0 | 0.00 | 0.05 | 0.05 | 53 | 1008.7 |
| 20260508225301 | 56 | 228 | 5.2 | 13.0 | 0.00 | 0.05 | 0.05 | 52 | 1008.7 |
| 20260508225101 | 56 | 222 | 4.3 | 13.9 | 0.00 | 0.05 | 0.05 | 52 | 1008.7 |
| 20260508224900 | 56 | 223 | 3.5 | 13.9 | 0.00 | 0.05 | 0.05 | 54 | 1008.6 |
| 20260508224700 | 56 | 231 | 4.3 | 13.9 | 0.00 | 0.05 | 0.05 | 54 | 1008.7 |
| 20260508224500 | 56 | 222 | 6.1 | 13.9 | 0.00 | 0.05 | 0.05 | 54 | 1008.7 |
| 20260508224259 | 57 | 231 | 4.3 | 13.9 | 0.00 | 0.05 | 0.05 | 53 | 1008.7 |
| 20260508224059 | 57 | 236 | 3.5 | 13.9 | 0.00 | 0.05 | 0.05 | 53 | 1008.7 |
| 20260508223859 | 57 | 215 | 5.2 | 15.6 | 0.00 | 0.05 | 0.05 | 54 | 1008.6 |
| 20260508223658 | 57 | 216 | 7.0 | 15.6 | 0.00 | 0.05 | 0.05 | 53 | 1008.7 |
| 20260508223458 | 57 | 223 | 6.1 | 15.6 | 0.00 | 0.05 | 0.05 | 53 | 1008.7 |
| 20260508223258 | 57 | 222 | 7.0 | 15.6 | 0.00 | 0.05 | 0.05 | 52 | 1008.7 |
| 20260508223058 | 57 | 222 | 6.1 | 15.6 | 0.00 | 0.05 | 0.05 | 52 | 1008.6 |
| 20260508222857 | 57 | 227 | 5.2 | 14.8 | 0.00 | 0.05 | 0.05 | 52 | 1008.6 |
| 20260508222657 | 57 | 219 | 7.0 | 14.8 | 0.00 | 0.05 | 0.05 | 53 | 1008.6 |
| 20260508222457 | 57 | 213 | 7.0 | 12.2 | 0.00 | 0.05 | 0.05 | 52 | 1008.6 |
| 20260508222256 | 58 | 221 | 5.2 | 12.2 | 0.00 | 0.05 | 0.05 | 53 | 1008.6 |
| 20260508222057 | 58 | 228 | 5.2 | 12.2 | 0.00 | 0.05 | 0.05 | 52 | 1008.6 |
| 20260508221856 | 58 | 226 | 5.2 | 12.2 | 0.00 | 0.05 | 0.05 | 52 | 1008.6 |
| 20260508221655 | 58 | 214 | 6.1 | 12.2 | 0.00 | 0.05 | 0.05 | 53 | 1008.6 |
| 20260508221455 | 58 | 214 | 6.1 | 13.9 | 0.00 | 0.05 | 0.05 | 52 | 1008.6 |
| 20260508221255 | 58 | 215 | 6.1 | 15.6 | 0.00 | 0.05 | 0.05 | 52 | 1008.6 |
| 20260508221055 | 58 | 223 | 4.3 | 16.5 | 0.00 | 0.05 | 0.05 | 53 | 1008.6 |
| 20260508220854 | 58 | 219 | 6.1 | 16.5 | 0.00 | 0.05 | 0.05 | 53 | 1008.6 |
| 20260508220654 | 58 | 224 | 7.0 | 16.5 | 0.00 | 0.05 | 0.05 | 53 | 1008.6 |
| 20260508220454 | 58 | 215 | 7.8 | 16.5 | 0.00 | 0.05 | 0.05 | 52 | 1008.5 |
| 20260508220253 | 58 | 211 | 8.7 | 16.5 | 0.00 | 0.05 | 0.05 | 51 | 1008.6 |
| 20260508220053 | 58 | 215 | 7.0 | 13.9 | 0.00 | 0.05 | 0.05 | 51 | 1008.5 |
| 20260508215853 | 58 | 211 | 5.2 | 14.8 | 0.00 | 0.07 | 0.05 | 52 | 1008.5 |
| 20260508215652 | 58 | 220 | 5.2 | 14.8 | 0.00 | 0.07 | 0.05 | 53 | 1008.6 |
| 20260508215452 | 58 | 208 | 7.0 | 14.8 | 0.00 | 0.07 | 0.05 | 53 | 1008.6 |
| 20260508215252 | 58 | 209 | 7.8 | 14.8 | 0.00 | 0.07 | 0.05 | 53 | 1008.6 |
| 20260508215052 | 58 | 214 | 6.1 | 14.8 | 0.00 | 0.07 | 0.05 | 52 | 1008.6 |
| 20260508214851 | 58 | 218 | 4.3 | 14.8 | 0.00 | 0.07 | 0.05 | 53 | 1008.6 |
| 20260508214651 | 58 | 222 | 5.2 | 14.8 | 0.00 | 0.07 | 0.05 | 54 | 1008.6 |
| 20260508214451 | 58 | 216 | 6.1 | 17.4 | 0.00 | 0.07 | 0.05 | 55 | 1008.6 |
| 20260508214250 | 58 | 219 | 7.0 | 17.4 | 0.00 | 0.07 | 0.05 | 54 | 1008.6 |
| 20260508214050 | 58 | 209 | 7.0 | 17.4 | 0.00 | 0.07 | 0.05 | 54 | 1008.6 |
| 20260508213850 | 58 | 214 | 7.0 | 17.4 | 0.00 | 0.07 | 0.05 | 54 | 1008.5 |
| 20260508213649 | 58 | 210 | 7.8 | 17.4 | 0.00 | 0.07 | 0.05 | 53 | 1008.6 |
| 20260508213449 | 58 | 210 | 7.0 | 17.4 | 0.00 | 0.07 | 0.05 | 54 | 1008.7 |
| 20260508213249 | 58 | 212 | 5.2 | 14.8 | 0.00 | 0.07 | 0.05 | 53 | 1008.7 |
| 20260508213049 | 59 | 217 | 6.1 | 11.3 | 0.00 | 0.07 | 0.05 | 54 | 1008.6 |
| 20260508212848 | 59 | 223 | 4.3 | 11.3 | 0.00 | 0.07 | 0.05 | 54 | 1008.6 |
| 20260508212648 | 59 | 226 | 4.3 | 13.0 | 0.00 | 0.07 | 0.05 | 54 | 1008.6 |
| 20260508212448 | 59 | 227 | 3.5 | 13.0 | 0.00 | 0.07 | 0.05 | 54 | 1008.6 |
| 20260508212247 | 58 | 220 | 4.3 | 13.0 | 0.00 | 0.07 | 0.05 | 55 | 1008.6 |
| 20260508212047 | 58 | 224 | 5.2 | 15.6 | 0.00 | 0.07 | 0.05 | 55 | 1008.6 |
| 20260508211847 | 58 | 236 | 5.2 | 16.5 | 0.00 | 0.07 | 0.05 | 55 | 1008.6 |
| 20260508211646 | 58 | 230 | 4.3 | 16.5 | 0.00 | 0.07 | 0.05 | 55 | 1008.6 |
| 20260508211446 | 58 | 219 | 6.1 | 20.9 | 0.00 | 0.07 | 0.05 | 54 | 1008.6 |
| 20260508211246 | 58 | 217 | 7.0 | 20.9 | 0.00 | 0.07 | 0.05 | 54 | 1008.7 |
| 20260508211046 | 58 | 217 | 6.1 | 20.9 | 0.00 | 0.07 | 0.05 | 53 | 1008.6 |
| 20260508210845 | 58 | 221 | 7.8 | 20.9 | 0.00 | 0.07 | 0.05 | 54 | 1008.6 |
| 20260508210645 | 58 | 222 | 7.0 | 20.9 | 0.00 | 0.07 | 0.05 | 54 | 1008.6 |
| 20260508210445 | 58 | 220 | 5.2 | 11.3 | 0.00 | 0.07 | 0.05 | 55 | 1008.6 |
| 20260508210244 | 57 | 231 | 6.1 | 11.3 | 0.00 | 0.07 | 0.05 | 54 | 1008.7 |
| 20260508210044 | 57 | 226 | 5.2 | 11.3 | 0.00 | 0.07 | 0.05 | 56 | 1008.7 |
| 20260508205844 | 57 | 231 | 5.2 | 12.2 | 0.00 | 0.07 | 0.05 | 56 | 1008.7 |
| 20260508205643 | 56 | 214 | 6.1 | 12.2 | 0.00 | 0.07 | 0.05 | 56 | 1008.7 |
| 20260508205443 | 56 | 219 | 4.3 | 12.2 | 0.00 | 0.07 | 0.05 | 56 | 1008.7 |
| 20260508205243 | 57 | 213 | 6.1 | 12.2 | 0.00 | 0.07 | 0.05 | 55 | 1008.7 |
| 20260508205042 | 57 | 215 | 6.1 | 12.2 | 0.00 | 0.07 | 0.05 | 55 | 1008.7 |
| 20260508204842 | 58 | 219 | 6.1 | 12.2 | 0.00 | 0.07 | 0.05 | 54 | 1008.6 |
| 20260508204642 | 58 | 219 | 6.1 | 13.0 | 0.00 | 0.07 | 0.05 | 55 | 1008.7 |
| 20260508204442 | 57 | 213 | 6.1 | 13.9 | 0.00 | 0.07 | 0.05 | 55 | 1008.7 |
| 20260508204241 | 57 | 220 | 5.2 | 13.9 | 0.00 | 0.07 | 0.05 | 55 | 1008.7 |
| 20260508204041 | 58 | 225 | 5.2 | 13.9 | 0.00 | 0.07 | 0.05 | 55 | 1008.7 |
| 20260508203841 | 58 | 228 | 7.0 | 13.9 | 0.00 | 0.07 | 0.05 | 55 | 1008.6 |
| 20260508203640 | 58 | 229 | 6.1 | 13.9 | 0.00 | 0.07 | 0.05 | 54 | 1008.7 |
| 20260508203440 | 59 | 225 | 6.1 | 13.9 | 0.00 | 0.07 | 0.05 | 54 | 1008.6 |
| 20260508203240 | 59 | 221 | 6.1 | 13.9 | 0.00 | 0.07 | 0.05 | 55 | 1008.8 |
| 20260508203040 | 59 | 219 | 5.2 | 13.9 | 0.00 | 0.07 | 0.05 | 54 | 1008.8 |
| 20260508202839 | 59 | 225 | 4.3 | 11.3 | 0.00 | 0.07 | 0.05 | 55 | 1008.7 |
| 20260508202639 | 59 | 213 | 5.2 | 15.6 | 0.00 | 0.07 | 0.05 | 54 | 1008.8 |
| 20260508202439 | 59 | 218 | 5.2 | 15.6 | 0.00 | 0.07 | 0.05 | 54 | 1008.8 |
| 20260508202238 | 59 | 214 | 5.2 | 16.5 | 0.00 | 0.07 | 0.05 | 54 | 1008.8 |
| 20260508202038 | 59 | 217 | 7.0 | 17.4 | 0.00 | 0.07 | 0.05 | 55 | 1008.8 |
| 20260508201838 | 59 | 220 | 6.1 | 17.4 | 0.00 | 0.07 | 0.05 | 54 | 1008.8 |
| 20260508201637 | 59 | 219 | 5.2 | 17.4 | 0.00 | 0.07 | 0.05 | 56 | 1008.8 |
| 20260508201437 | 59 | 209 | 7.8 | 17.4 | 0.00 | 0.07 | 0.05 | 55 | 1008.8 |
| 20260508201237 | 59 | 218 | 6.1 | 13.9 | 0.00 | 0.07 | 0.05 | 55 | 1008.9 |
| 20260508201036 | 60 | 219 | 5.2 | 11.3 | 0.00 | 0.07 | 0.05 | 55 | 1008.9 |
| 20260508200836 | 60 | 226 | 4.3 | 11.3 | 0.00 | 0.07 | 0.05 | 55 | 1008.9 |
| 20260508200636 | 60 | 230 | 2.6 | 15.6 | 0.00 | 0.07 | 0.05 | 57 | 1008.9 |
| 20260508200436 | 59 | 223 | 2.6 | 15.6 | 0.00 | 0.07 | 0.05 | 56 | 1009.0 |
| 20260508200235 | 59 | 219 | 4.3 | 15.6 | 0.00 | 0.07 | 0.05 | 57 | 1008.9 |
| 20260508200035 | 58 | 253 | 3.5 | 15.6 | 0.00 | 0.07 | 0.05 | 56 | 1008.9 |
| 20260508195835 | 59 | 229 | 5.2 | 15.6 | 0.00 | 0.07 | 0.05 | 56 | 1009.0 |
| 20260508195634 | 59 | 221 | 5.2 | 15.6 | 0.00 | 0.07 | 0.05 | 59 | 1009.0 |
| 20260508195434 | 58 | 218 | 4.3 | 13.0 | 0.00 | 0.07 | 0.05 | 59 | 1009.0 |
| 20260508195234 | 58 | 214 | 4.3 | 13.0 | 0.00 | 0.07 | 0.05 | 60 | 1009.0 |
| 20260508195033 | 57 | 206 | 2.6 | 13.0 | 0.00 | 0.07 | 0.05 | 62 | 1009.0 |
| 20260508194833 | 56 | 194 | 4.3 | 13.0 | 0.00 | 0.07 | 0.05 | 62 | 1009.1 |
| 20260508194633 | 56 | 203 | 4.3 | 13.0 | 0.00 | 0.07 | 0.05 | 62 | 1009.1 |
| 20260508194433 | 56 | 210 | 4.3 | 10.4 | 0.00 | 0.07 | 0.05 | 62 | 1009.2 |
| 20260508194232 | 56 | 218 | 6.1 | 10.4 | 0.00 | 0.07 | 0.05 | 62 | 1009.2 |
| 20260508194032 | 56 | 219 | 5.2 | 13.0 | 0.00 | 0.07 | 0.05 | 62 | 1009.3 |
| 20260508193832 | 56 | 235 | 3.5 | 13.0 | 0.00 | 0.07 | 0.05 | 62 | 1009.2 |
| 20260508193631 | 56 | 223 | 4.3 | 13.0 | 0.00 | 0.07 | 0.05 | 62 | 1009.3 |
| 20260508193431 | 56 | 218 | 6.1 | 13.0 | 0.00 | 0.07 | 0.05 | 62 | 1009.3 |
| 20260508193231 | 56 | 211 | 6.1 | 15.6 | 0.00 | 0.07 | 0.05 | 61 | 1009.3 |
| 20260508193030 | 57 | 218 | 6.1 | 15.6 | 0.00 | 0.07 | 0.05 | 61 | 1009.4 |
| 20260508192830 | 57 | 208 | 7.0 | 16.5 | 0.00 | 0.07 | 0.05 | 61 | 1009.5 |
| 20260508192630 | 57 | 215 | 7.0 | 17.4 | 0.00 | 0.07 | 0.05 | 60 | 1009.5 |
| 20260508192430 | 58 | 221 | 6.1 | 17.4 | 0.00 | 0.07 | 0.05 | 60 | 1009.5 |
| 20260508192229 | 57 | 220 | 7.8 | 17.4 | 0.00 | 0.07 | 0.05 | 60 | 1009.5 |
| 20260508192029 | 57 | 217 | 8.7 | 17.4 | 0.00 | 0.07 | 0.05 | 59 | 1009.5 |
| 20260508191829 | 58 | 198 | 6.1 | 17.4 | 0.00 | 0.07 | 0.05 | 61 | 1009.5 |
| 20260508191628 | 58 | 252 | 3.5 | 11.3 | 0.00 | 0.07 | 0.05 | 63 | 1009.5 |
| 20260508191428 | 57 | 243 | 3.5 | 11.3 | 0.00 | 0.07 | 0.05 | 63 | 1009.6 |
| 20260508191228 | 56 | 237 | 4.3 | 11.3 | 0.00 | 0.07 | 0.05 | 62 | 1009.5 |
| 20260508191027 | 56 | 228 | 4.3 | 11.3 | 0.00 | 0.07 | 0.05 | 63 | 1009.6 |
| 20260508190827 | 56 | 229 | 3.5 | 10.4 | 0.00 | 0.07 | 0.05 | 64 | 1009.6 |
| 20260508190627 | 55 | 230 | 4.3 | 10.4 | 0.00 | 0.07 | 0.05 | 65 | 1009.7 |
| 20260508190427 | 56 | 230 | 4.3 | 13.0 | 0.00 | 0.07 | 0.05 | 64 | 1009.6 |
| 20260508190226 | 56 | 227 | 5.2 | 13.0 | 0.00 | 0.07 | 0.05 | 64 | 1009.7 |
| 20260508190026 | 56 | 224 | 5.2 | 13.0 | 0.00 | 0.07 | 0.05 | 64 | 1009.7 |
| 20260508185826 | 56 | 219 | 6.1 | 13.9 | 0.00 | 0.07 | 0.05 | 63 | 1009.6 |
| 20260508185625 | 57 | 215 | 5.2 | 13.9 | 0.00 | 0.07 | 0.05 | 62 | 1009.7 |
| 20260508185425 | 57 | 218 | 5.2 | 13.9 | 0.00 | 0.07 | 0.05 | 62 | 1009.7 |
| 20260508185225 | 58 | 222 | 5.2 | 13.9 | 0.00 | 0.07 | 0.05 | 63 | 1009.7 |
| 20260508185024 | 57 | 219 | 6.1 | 13.9 | 0.00 | 0.07 | 0.05 | 64 | 1009.7 |
| 20260508184824 | 56 | 219 | 5.2 | 13.9 | 0.00 | 0.07 | 0.05 | 65 | 1009.7 |
| 20260508184624 | 56 | 221 | 5.2 | 12.2 | 0.00 | 0.07 | 0.05 | 64 | 1009.8 |
| 20260508184424 | 56 | 227 | 4.3 | 16.5 | 0.00 | 0.07 | 0.05 | 63 | 1009.8 |
| 20260508184223 | 56 | 226 | 5.2 | 17.4 | 0.00 | 0.07 | 0.05 | 63 | 1009.8 |
| 20260508184023 | 56 | 226 | 6.1 | 17.4 | 0.00 | 0.07 | 0.05 | 64 | 1009.7 |
| 20260508183823 | 56 | 234 | 5.2 | 17.4 | 0.00 | 0.07 | 0.05 | 64 | 1009.8 |
| 20260508183622 | 57 | 230 | 7.0 | 17.4 | 0.00 | 0.07 | 0.05 | 64 | 1009.8 |
| 20260508183422 | 57 | 218 | 8.7 | 17.4 | 0.00 | 0.07 | 0.05 | 63 | 1009.8 |
| 20260508183222 | 58 | 217 | 7.0 | 14.8 | 0.00 | 0.07 | 0.05 | 62 | 1009.8 |
| 20260508183021 | 57 | 225 | 6.1 | 11.3 | 0.00 | 0.07 | 0.05 | 64 | 1009.9 |
| 20260508182821 | 57 | 217 | 4.3 | 11.3 | 0.00 | 0.07 | 0.05 | 66 | 1010.0 |
| 20260508182621 | 56 | 220 | 3.5 | 12.2 | 0.00 | 0.07 | 0.05 | 66 | 1010.0 |
| 20260508182421 | 55 | 227 | 2.6 | 13.0 | 0.00 | 0.07 | 0.05 | 66 | 1010.0 |
| 20260508182220 | 55 | 27 | 0.9 | 13.0 | 0.00 | 0.07 | 0.05 | 66 | 1010.0 |
| 20260508182020 | 55 | 240 | 4.3 | 13.0 | 0.00 | 0.07 | 0.05 | 66 | 1010.0 |
| 20260508181820 | 55 | 226 | 6.1 | 13.0 | 0.00 | 0.07 | 0.05 | 66 | 1010.1 |
| 20260508181619 | 56 | 231 | 4.3 | 13.0 | 0.00 | 0.07 | 0.05 | 65 | 1010.1 |
| 20260508181419 | 56 | 219 | 5.2 | 9.6 | 0.00 | 0.07 | 0.05 | 64 | 1010.1 |
| 20260508181219 | 56 | 232 | 3.5 | 9.6 | 0.00 | 0.07 | 0.05 | 62 | 1010.2 |
| 20260508181018 | 56 | 242 | 1.7 | 10.4 | 0.00 | 0.07 | 0.05 | 64 | 1010.1 |
| 20260508180818 | 56 | 231 | 1.7 | 10.4 | 0.00 | 0.07 | 0.05 | 65 | 1010.2 |
| 20260508180618 | 55 | 229 | 2.6 | 10.4 | 0.00 | 0.07 | 0.05 | 65 | 1010.2 |
| 20260508180418 | 55 | 222 | 4.3 | 10.4 | 0.00 | 0.07 | 0.05 | 65 | 1010.3 |
| 20260508180217 | 55 | 231 | 3.5 | 11.3 | 0.00 | 0.07 | 0.05 | 66 | 1010.3 |
| 20260508180017 | 56 | 232 | 4.3 | 12.2 | 0.00 | 0.07 | 0.05 | 66 | 1010.3 |
| 20260508175817 | 56 | 243 | 2.6 | 12.2 | 0.00 | 0.07 | 0.05 | 65 | 1010.3 |
| 20260508175616 | 56 | 233 | 3.5 | 12.2 | 0.00 | 0.07 | 0.05 | 66 | 1010.3 |
| 20260508175416 | 56 | 211 | 7.0 | 12.2 | 0.00 | 0.07 | 0.05 | 67 | 1010.5 |
| 20260508175216 | 56 | 216 | 7.0 | 10.4 | 0.00 | 0.07 | 0.05 | 66 | 1010.4 |
| 20260508175015 | 56 | 221 | 6.1 | 10.4 | 0.00 | 0.07 | 0.05 | 66 | 1010.4 |
| 20260508174815 | 56 | 240 | 4.3 | 10.4 | 0.00 | 0.07 | 0.05 | 66 | 1010.3 |
| 20260508174615 | 56 | 233 | 5.2 | 10.4 | 0.00 | 0.07 | 0.05 | 66 | 1010.3 |
| 20260508174414 | 56 | 232 | 4.3 | 10.4 | 0.00 | 0.07 | 0.05 | 64 | 1010.3 |
| 20260508174214 | 56 | 217 | 4.3 | 9.6 | 0.00 | 0.07 | 0.05 | 64 | 1010.4 |
| 20260508174014 | 56 | 217 | 4.3 | 13.0 | 0.00 | 0.07 | 0.05 | 63 | 1010.3 |
| 20260508173814 | 56 | 251 | 2.6 | 13.0 | 0.00 | 0.07 | 0.05 | 63 | 1010.4 |
| 20260508173613 | 57 | 267 | 1.7 | 13.0 | 0.00 | 0.07 | 0.05 | 63 | 1010.3 |
| 20260508173413 | 57 | 238 | 5.2 | 13.0 | 0.00 | 0.07 | 0.05 | 63 | 1010.4 |
| 20260508173213 | 57 | 214 | 7.0 | 13.0 | 0.00 | 0.07 | 0.05 | 63 | 1010.4 |
| 20260508173012 | 57 | 228 | 4.3 | 9.6 | 0.00 | 0.07 | 0.05 | 61 | 1010.3 |
| 20260508172812 | 57 | 241 | 4.3 | 9.6 | 0.00 | 0.07 | 0.05 | 62 | 1010.3 |
| 20260508172612 | 57 | 223 | 4.3 | 10.4 | 0.00 | 0.07 | 0.05 | 64 | 1010.3 |
| 20260508172412 | 57 | 238 | 3.5 | 10.4 | 0.00 | 0.07 | 0.05 | 63 | 1010.3 |
| 20260508172211 | 57 | 232 | 4.3 | 10.4 | 0.00 | 0.07 | 0.05 | 62 | 1010.4 |
| 20260508172011 | 57 | 218 | 3.5 | 13.9 | 0.00 | 0.07 | 0.05 | 63 | 1010.4 |
| 20260508171811 | 57 | 211 | 4.3 | 14.8 | 0.00 | 0.07 | 0.05 | 63 | 1010.5 |
| 20260508171610 | 57 | 238 | 1.7 | 14.8 | 0.00 | 0.07 | 0.05 | 61 | 1010.5 |
| 20260508171410 | 58 | 230 | 1.7 | 14.8 | 0.00 | 0.07 | 0.05 | 62 | 1010.5 |
| 20260508171210 | 58 | 207 | 5.2 | 14.8 | 0.00 | 0.07 | 0.05 | 60 | 1010.6 |
| 20260508171009 | 58 | 216 | 2.6 | 7.8 | 0.00 | 0.07 | 0.05 | 54 | 1010.5 |
| 20260508170809 | 58 | 207 | 3.5 | 7.0 | 0.00 | 0.07 | 0.05 | 51 | 1010.6 |
| 20260508170609 | 58 | 87 | 1.7 | 8.7 | 0.00 | 0.07 | 0.05 | 51 | 1010.5 |
| 20260508170409 | 58 | 196 | 2.6 | 8.7 | 0.00 | 0.07 | 0.05 | 50 | 1010.5 |
| 20260508170208 | 58 | 179 | 1.7 | 10.4 | 0.00 | 0.07 | 0.05 | 50 | 1010.5 |
| 20260508170008 | 58 | 110 | 2.6 | 10.4 | 0.00 | 0.07 | 0.05 | 49 | 1010.6 |
| 20260508165808 | 59 | 204 | 2.6 | 10.4 | 0.00 | 0.07 | 0.05 | 50 | 1010.7 |
| 20260508165607 | 58 | 226 | 2.6 | 10.4 | 0.00 | 0.07 | 0.05 | 50 | 1010.7 |
| 20260508165407 | 59 | 206 | 3.5 | 10.4 | 0.00 | 0.07 | 0.05 | 49 | 1010.7 |
| 20260508165207 | 59 | 214 | 3.5 | 10.4 | 0.00 | 0.07 | 0.05 | 50 | 1010.7 |
| 20260508165006 | 59 | 204 | 3.5 | 10.4 | 0.00 | 0.07 | 0.05 | 51 | 1010.7 |
| 20260508164806 | 59 | 187 | 3.5 | 10.4 | 0.00 | 0.07 | 0.05 | 50 | 1010.7 |
| 20260508164606 | 58 | 218 | 2.6 | 8.7 | 0.00 | 0.07 | 0.05 | 52 | 1010.8 |
| 20260508164405 | 58 | 226 | 2.6 | 7.8 | 0.00 | 0.07 | 0.05 | 53 | 1010.8 |
| 20260508164205 | 58 | 200 | 3.5 | 7.8 | 0.00 | 0.07 | 0.05 | 52 | 1010.8 |
| 20260508164005 | 58 | 153 | 1.7 | 7.8 | 0.00 | 0.07 | 0.05 | 52 | 1010.9 |
| 20260508163805 | 58 | 57 | 1.7 | 7.8 | 0.00 | 0.07 | 0.05 | 52 | 1010.9 |
| 20260508163604 | 57 | 95 | 1.7 | 8.7 | 0.00 | 0.07 | 0.05 | 52 | 1010.9 |
| 20260508163404 | 57 | 63 | 2.6 | 8.7 | 0.00 | 0.07 | 0.05 | 52 | 1011.0 |
| 20260508163204 | 57 | 63 | 3.5 | 8.7 | 0.00 | 0.07 | 0.05 | 52 | 1011.0 |
| 20260508163003 | 57 | 171 | 1.7 | 9.6 | 0.00 | 0.07 | 0.05 | 52 | 1010.9 |
| 20260508162803 | 57 | 202 | 1.7 | 9.6 | 0.00 | 0.07 | 0.05 | 53 | 1011.0 |
| 20260508162603 | 57 | 247 | 3.5 | 9.6 | 0.00 | 0.07 | 0.05 | 52 | 1011.0 |
| 20260508162402 | 56 | 243 | 3.5 | 9.6 | 0.00 | 0.07 | 0.05 | 51 | 1011.1 |
| 20260508162202 | 56 | 181 | 4.3 | 9.6 | 0.00 | 0.07 | 0.05 | 50 | 1011.2 |
| 20260508162002 | 57 | 130 | 1.7 | 9.6 | 0.00 | 0.07 | 0.05 | 51 | 1011.1 |
| 20260508161802 | 56 | 110 | 1.7 | 7.0 | 0.00 | 0.07 | 0.05 | 54 | 1011.1 |
| 20260508161601 | 56 | 118 | 0.9 | 7.8 | 0.00 | 0.07 | 0.05 | 55 | 1011.0 |
| 20260508161401 | 55 | 203 | 1.7 | 7.8 | 0.00 | 0.07 | 0.05 | 54 | 1011.1 |
| 20260508161201 | 55 | 109 | 2.6 | 7.8 | 0.00 | 0.07 | 0.05 | 52 | 1011.2 |
| 20260508161000 | 55 | 112 | 3.5 | 7.8 | 0.00 | 0.07 | 0.05 | 53 | 1011.2 |
| 20260508160800 | 56 | 160 | 1.7 | 7.8 | 0.00 | 0.07 | 0.05 | 54 | 1011.2 |
| 20260508160600 | 56 | 193 | 1.7 | 4.3 | 0.00 | 0.07 | 0.05 | 55 | 1011.2 |
| 20260508160359 | 56 | 162 | 1.7 | 4.3 | 0.00 | 0.07 | 0.05 | 55 | 1011.2 |
| 20260508160159 | 55 | 163 | 0.9 | 4.3 | 0.00 | 0.07 | 0.05 | 54 | 1011.1 |
| 20260508155959 | 55 | 101 | 0.9 | 4.3 | 0.00 | 0.07 | 0.05 | 53 | 1011.3 |
| 20260508155759 | 54 | 65 | 0.9 | 4.3 | 0.00 | 0.07 | 0.05 | 55 | 1011.2 |
| 20260508155558 | 54 | 15 | 0.9 | 4.3 | 0.00 | 0.07 | 0.05 | 55 | 1011.2 |
| 20260508155358 | 54 | 331 | 0.9 | 5.2 | 0.00 | 0.07 | 0.05 | 55 | 1011.3 |
| 20260508155158 | 54 | 22 | 0.9 | 5.2 | 0.00 | 0.07 | 0.05 | 54 | 1011.4 |
| 20260508154957 | 54 | 263 | 0.9 | 5.2 | 0.00 | 0.07 | 0.05 | 57 | 1011.3 |
| 20260508154757 | 54 | 237 | 0.9 | 5.2 | 0.00 | 0.07 | 0.05 | 60 | 1011.3 |
| 20260508154557 | 54 | 217 | 1.7 | 8.7 | 0.00 | 0.07 | 0.05 | 60 | 1011.3 |
| 20260508154356 | 54 | 242 | 1.7 | 9.6 | 0.00 | 0.07 | 0.05 | 59 | 1011.3 |
| 20260508154156 | 54 | 246 | 0.9 | 9.6 | 0.00 | 0.07 | 0.05 | 60 | 1011.2 |
| 20260508153956 | 54 | 244 | 0.9 | 9.6 | 0.00 | 0.07 | 0.05 | 60 | 1011.3 |
| 20260508153756 | 54 | 222 | 2.6 | 9.6 | 0.00 | 0.07 | 0.05 | 62 | 1011.3 |
| 20260508153555 | 53 | 252 | 0.9 | 7.0 | 0.00 | 0.07 | 0.05 | 63 | 1011.3 |
| 20260508153355 | 53 | 242 | 0.9 | 7.0 | 0.00 | 0.07 | 0.05 | 64 | 1011.3 |
| 20260508153155 | 53 | 214 | 0.9 | 7.0 | 0.00 | 0.07 | 0.05 | 63 | 1011.3 |
| 20260508152954 | 53 | 183 | 2.6 | 7.0 | 0.00 | 0.07 | 0.05 | 63 | 1011.4 |
| 20260508152754 | 53 | 145 | 1.7 | 7.0 | 0.00 | 0.07 | 0.05 | 62 | 1011.4 |
| 20260508152554 | 53 | 74 | 0.0 | 7.0 | 0.00 | 0.07 | 0.05 | 61 | 1011.4 |
| 20260508152353 | 53 | 84 | 0.9 | 7.0 | 0.00 | 0.07 | 0.05 | 62 | 1011.4 |
| 20260508152153 | 53 | 205 | 2.6 | 7.0 | 0.00 | 0.07 | 0.05 | 62 | 1011.4 |
| 20260508151953 | 53 | 111 | 2.6 | 7.0 | 0.00 | 0.07 | 0.05 | 61 | 1011.4 |
| 20260508151753 | 54 | 54 | 1.7 | 6.1 | 0.00 | 0.07 | 0.05 | 61 | 1011.4 |
| 20260508151552 | 54 | 205 | 0.9 | 6.1 | 0.00 | 0.07 | 0.05 | 61 | 1011.4 |
| 20260508151352 | 54 | 229 | 1.7 | 6.1 | 0.00 | 0.07 | 0.05 | 61 | 1011.4 |
| 20260508151152 | 54 | 236 | 1.7 | 6.1 | 0.00 | 0.07 | 0.05 | 62 | 1011.4 |
| 20260508150951 | 54 | 281 | 0.9 | 6.1 | 0.00 | 0.07 | 0.05 | 62 | 1011.5 |
| 20260508150751 | 54 | 261 | 0.9 | 6.1 | 0.00 | 0.07 | 0.05 | 63 | 1011.5 |
| 20260508150551 | 53 | 174 | 0.0 | 6.1 | 0.00 | 0.07 | 0.05 | 64 | 1011.5 |
| 20260508150350 | 53 | 111 | 0.9 | 6.1 | 0.00 | 0.07 | 0.05 | 64 | 1011.5 |
| 20260508150150 | 52 | 167 | 1.7 | 6.1 | 0.00 | 0.07 | 0.05 | 64 | 1011.6 |
| 20260508145950 | 52 | 222 | 0.0 | 5.2 | 0.00 | 0.07 | 0.05 | 65 | 1011.6 |
| 20260508145750 | 52 | 252 | 1.7 | 5.2 | 0.00 | 0.07 | 0.05 | 67 | 1011.5 |
| 20260508145549 | 52 | 213 | 1.7 | 5.2 | 0.00 | 0.07 | 0.05 | 68 | 1011.6 |
| 20260508145349 | 52 | 224 | 0.9 | 5.2 | 0.00 | 0.07 | 0.05 | 68 | 1011.6 |
| 20260508145149 | 52 | 223 | 1.7 | 5.2 | 0.00 | 0.07 | 0.05 | 66 | 1011.6 |
| 20260508144948 | 52 | 261 | 0.9 | 5.2 | 0.00 | 0.07 | 0.05 | 67 | 1011.5 |
| 20260508144748 | 52 | 253 | 0.9 | 3.5 | 0.00 | 0.07 | 0.05 | 65 | 1011.7 |
| 20260508144548 | 53 | 239 | 0.0 | 5.2 | 0.00 | 0.07 | 0.05 | 66 | 1011.7 |
| 20260508144347 | 53 | 253 | 0.0 | 5.2 | 0.00 | 0.07 | 0.05 | 66 | 1011.7 |
| 20260508144147 | 53 | 332 | 0.0 | 5.2 | 0.00 | 0.07 | 0.05 | 67 | 1011.7 |
| 20260508143947 | 53 | 12 | 0.9 | 7.8 | 0.00 | 0.07 | 0.05 | 68 | 1011.7 |
| 20260508143747 | 53 | 341 | 0.9 | 7.8 | 0.00 | 0.07 | 0.05 | 69 | 1011.7 |
| 20260508143546 | 52 | 325 | 0.9 | 7.8 | 0.00 | 0.07 | 0.05 | 70 | 1011.7 |
| 20260508143346 | 52 | 243 | 1.7 | 7.8 | 0.00 | 0.07 | 0.05 | 69 | 1011.7 |
| 20260508143146 | 52 | 200 | 3.5 | 7.8 | 0.00 | 0.07 | 0.05 | 69 | 1011.7 |
| 20260508142945 | 52 | 202 | 1.7 | 7.8 | 0.00 | 0.07 | 0.05 | 69 | 1011.7 |
| 20260508142745 | 52 | 234 | 0.0 | 7.0 | 0.00 | 0.07 | 0.05 | 68 | 1011.7 |
| 20260508142545 | 51 | 205 | 1.7 | 7.0 | 0.00 | 0.07 | 0.05 | 69 | 1011.7 |
| 20260508142344 | 52 | 175 | 2.6 | 7.0 | 0.00 | 0.07 | 0.05 | 68 | 1011.7 |
| 20260508142144 | 52 | 193 | 2.6 | 7.0 | 0.00 | 0.07 | 0.05 | 69 | 1011.8 |
| 20260508141944 | 52 | 233 | 1.7 | 7.0 | 0.00 | 0.07 | 0.05 | 70 | 1011.7 |
| 20260508141744 | 52 | 195 | 1.7 | 6.1 | 0.00 | 0.07 | 0.05 | 71 | 1011.7 |
| 20260508141543 | 52 | 225 | 0.9 | 5.2 | 0.00 | 0.07 | 0.05 | 72 | 1011.5 |
| 20260508141343 | 52 | 225 | 2.6 | 5.2 | 0.00 | 0.07 | 0.05 | 72 | 1011.6 |
| 20260508141143 | 52 | 235 | 1.7 | 5.2 | 0.00 | 0.07 | 0.05 | 71 | 1011.6 |
| 20260508140942 | 52 | 328 | 0.0 | 3.5 | 0.00 | 0.07 | 0.05 | 71 | 1011.5 |
| 20260508140742 | 52 | 348 | 0.0 | 2.6 | 0.00 | 0.07 | 0.05 | 72 | 1011.5 |
| 20260508140542 | 52 | 335 | 0.9 | 2.6 | 0.00 | 0.07 | 0.05 | 72 | 1011.5 |
| 20260508140341 | 51 | 208 | 0.0 | 3.5 | 0.00 | 0.07 | 0.05 | 72 | 1011.5 |
| 20260508140141 | 51 | 207 | 0.0 | 3.5 | 0.00 | 0.07 | 0.05 | 73 | 1011.5 |
| 20260508135941 | 50 | 207 | 0.0 | 7.0 | 0.00 | 0.07 | 0.05 | 74 | 1011.5 |
| 20260508135740 | 50 | 211 | 0.9 | 7.0 | 0.00 | 0.07 | 0.05 | 73 | 1011.5 |
| 20260508135540 | 50 | 231 | 0.9 | 7.0 | 0.00 | 0.07 | 0.05 | 72 | 1011.6 |
| 20260508135340 | 50 | 228 | 1.7 | 7.0 | 0.00 | 0.07 | 0.05 | 73 | 1011.5 |
| 20260508135140 | 50 | 222 | 1.7 | 7.0 | 0.00 | 0.07 | 0.05 | 72 | 1011.6 |
| 20260508134939 | 50 | 231 | 0.0 | 5.2 | 0.00 | 0.07 | 0.05 | 73 | 1011.5 |
| 20260508134739 | 50 | 231 | 0.0 | 6.1 | 0.00 | 0.07 | 0.05 | 74 | 1011.5 |
| 20260508134539 | 50 | 231 | 0.0 | 6.1 | 0.00 | 0.07 | 0.05 | 74 | 1011.5 |
| 20260508134338 | 50 | 231 | 0.0 | 6.1 | 0.00 | 0.07 | 0.05 | 73 | 1011.5 |
| 20260508134138 | 50 | 228 | 0.9 | 6.1 | 0.00 | 0.07 | 0.05 | 73 | 1011.5 |
| 20260508133938 | 50 | 281 | 0.9 | 6.1 | 0.00 | 0.07 | 0.05 | 72 | 1011.5 |
| 20260508133738 | 50 | 328 | 0.0 | 2.6 | 0.00 | 0.07 | 0.05 | 75 | 1011.5 |
| 20260508133537 | 50 | 274 | 0.0 | 2.6 | 0.00 | 0.07 | 0.05 | 74 | 1011.4 |
| 20260508133337 | 50 | 245 | 0.0 | 1.7 | 0.00 | 0.07 | 0.05 | 74 | 1011.4 |
| 20260508133137 | 50 | 248 | 0.0 | 2.6 | 0.00 | 0.07 | 0.05 | 75 | 1011.5 |
| 20260508132936 | 49 | 274 | 0.9 | 2.6 | 0.00 | 0.07 | 0.05 | 74 | 1011.5 |
| 20260508132736 | 50 | 58 | 0.0 | 3.5 | 0.00 | 0.07 | 0.05 | 75 | 1011.5 |
| 20260508132536 | 49 | 19 | 0.0 | 3.5 | 0.00 | 0.07 | 0.05 | 75 | 1011.6 |
| 20260508132335 | 49 | 349 | 0.9 | 3.5 | 0.00 | 0.07 | 0.05 | 76 | 1011.5 |
| 20260508132135 | 48 | 15 | 0.9 | 3.5 | 0.00 | 0.07 | 0.05 | 76 | 1011.5 |
| 20260508131935 | 48 | 356 | 0.0 | 2.6 | 0.00 | 0.07 | 0.05 | 76 | 1011.6 |
| 20260508131734 | 48 | 13 | 0.0 | 2.6 | 0.00 | 0.07 | 0.05 | 77 | 1011.6 |
| 20260508131534 | 48 | 16 | 0.0 | 2.6 | 0.00 | 0.07 | 0.05 | 77 | 1011.6 |
| 20260508131334 | 48 | 11 | 0.9 | 2.6 | 0.00 | 0.07 | 0.05 | 76 | 1011.6 |
| 20260508131134 | 48 | 16 | 0.9 | 5.2 | 0.00 | 0.07 | 0.05 | 77 | 1011.6 |
| 20260508130933 | 48 | 8 | 0.0 | 5.2 | 0.00 | 0.07 | 0.05 | 79 | 1011.6 |
| 20260508130733 | 47 | 356 | 0.0 | 5.2 | 0.00 | 0.07 | 0.05 | 80 | 1011.7 |
| 20260508130533 | 46 | 53 | 0.9 | 5.2 | 0.00 | 0.07 | 0.05 | 81 | 1011.7 |
| 20260508130332 | 46 | 59 | 1.7 | 5.2 | 0.00 | 0.07 | 0.05 | 79 | 1011.7 |
| 20260508130132 | 46 | 42 | 0.9 | 5.2 | 0.00 | 0.07 | 0.05 | 80 | 1011.6 |
| 20260508125932 | 46 | 22 | 0.0 | 4.3 | 0.00 | 0.07 | 0.05 | 80 | 1011.6 |
| 20260508125731 | 46 | 39 | 1.7 | 4.3 | 0.00 | 0.07 | 0.05 | 80 | 1011.6 |
| 20260508125538 | 46 | 27 | 1.7 | 4.3 | 0.00 | 0.07 | 0.05 | 80 | 1011.7 |
| 20260508125337 | 46 | 41 | 1.7 | 4.3 | 0.00 | 0.07 | 0.05 | 81 | 1011.7 |
| 20260508125137 | 46 | 47 | 0.9 | 4.3 | 0.00 | 0.07 | 0.05 | 81 | 1011.7 |
| 20260508124937 | 45 | 18 | 0.9 | 4.3 | 0.00 | 0.07 | 0.05 | 82 | 1011.7 |
| 20260508124737 | 45 | 31 | 0.9 | 4.3 | 0.00 | 0.07 | 0.05 | 83 | 1011.7 |
| 20260508124536 | 45 | 36 | 0.9 | 4.3 | 0.00 | 0.07 | 0.05 | 83 | 1011.7 |
| 20260508124336 | 44 | 29 | 1.7 | 4.3 | 0.00 | 0.07 | 0.05 | 83 | 1011.7 |
| 20260508124136 | 44 | 36 | 2.6 | 4.3 | 0.00 | 0.07 | 0.05 | 83 | 1011.6 |
| 20260508123935 | 44 | 38 | 1.7 | 6.1 | 0.00 | 0.07 | 0.05 | 83 | 1011.7 |
| 20260508123735 | 44 | 27 | 1.7 | 6.1 | 0.00 | 0.07 | 0.05 | 83 | 1011.7 |
| 20260508123535 | 44 | 16 | 1.7 | 6.1 | 0.00 | 0.07 | 0.05 | 84 | 1011.7 |
| 20260508123334 | 44 | 30 | 1.7 | 6.1 | 0.00 | 0.07 | 0.05 | 84 | 1011.7 |
| 20260508123134 | 44 | 24 | 1.7 | 6.1 | 0.00 | 0.07 | 0.05 | 84 | 1011.7 |
| 20260508122934 | 43 | 40 | 2.6 | 6.1 | 0.00 | 0.07 | 0.05 | 84 | 1011.8 |
| 20260508122733 | 43 | 57 | 3.5 | 6.1 | 0.00 | 0.07 | 0.05 | 85 | 1011.8 |
| 20260508122533 | 43 | 47 | 2.6 | 5.2 | 0.00 | 0.07 | 0.05 | 86 | 1011.8 |
| 20260508122333 | 43 | 64 | 1.7 | 5.2 | 0.00 | 0.07 | 0.05 | 86 | 1011.7 |
| 20260508122133 | 43 | 73 | 0.9 | 5.2 | 0.00 | 0.07 | 0.05 | 86 | 1011.8 |
| 20260508121932 | 43 | 4 | 1.7 | 6.1 | 0.00 | 0.07 | 0.05 | 86 | 1011.8 |
| 20260508121732 | 42 | 14 | 0.9 | 7.0 | 0.00 | 0.07 | 0.05 | 87 | 1011.8 |
| 20260508121532 | 42 | 5 | 1.7 | 7.8 | 0.00 | 0.07 | 0.05 | 87 | 1011.8 |
| 20260508121331 | 42 | 25 | 1.7 | 7.8 | 0.00 | 0.07 | 0.05 | 87 | 1011.7 |
| 20260508121131 | 42 | 45 | 2.6 | 7.8 | 0.00 | 0.07 | 0.05 | 87 | 1011.7 |
| 20260508120931 | 42 | 19 | 3.5 | 7.8 | 0.00 | 0.07 | 0.05 | 87 | 1011.7 |
| 20260508120730 | 42 | 36 | 1.7 | 7.8 | 0.00 | 0.07 | 0.05 | 88 | 1011.8 |
| 20260508120530 | 43 | 53 | 0.9 | 6.1 | 0.00 | 0.07 | 0.05 | 88 | 1011.7 |
| 20260508120330 | 43 | 57 | 1.7 | 6.1 | 0.00 | 0.07 | 0.05 | 89 | 1011.7 |
| 20260508120130 | 43 | 316 | 0.9 | 6.1 | 0.00 | 0.07 | 0.05 | 90 | 1011.7 |
| 20260508115929 | 42 | 320 | 0.9 | 7.0 | 0.00 | 0.07 | 0.05 | 90 | 1011.7 |
| 20260508115729 | 42 | 11 | 0.9 | 7.0 | 0.00 | 0.07 | 0.05 | 90 | 1011.6 |
| 20260508115529 | 42 | 33 | 1.7 | 7.0 | 0.00 | 0.07 | 0.05 | 90 | 1011.5 |
| 20260508115328 | 42 | 350 | 1.7 | 7.0 | 0.00 | 0.07 | 0.05 | 90 | 1011.6 |
| 20260508115128 | 43 | 319 | 1.7 | 7.0 | 0.00 | 0.07 | 0.05 | 90 | 1011.5 |
| 20260508114928 | 43 | 109 | 1.7 | 5.2 | 0.00 | 0.07 | 0.05 | 91 | 1011.4 |
| 20260508114727 | 42 | 72 | 0.9 | 5.2 | 0.00 | 0.07 | 0.05 | 92 | 1011.5 |
| 20260508114527 | 42 | 17 | 0.0 | 4.3 | 0.00 | 0.07 | 0.05 | 92 | 1011.4 |
| 20260508114327 | 42 | 103 | 0.0 | 4.3 | 0.00 | 0.07 | 0.05 | 92 | 1011.4 |
| 20260508114127 | 42 | 98 | 0.0 | 4.3 | 0.00 | 0.07 | 0.05 | 92 | 1011.4 |
| 20260508113926 | 42 | 90 | 0.0 | 4.3 | 0.00 | 0.07 | 0.05 | 92 | 1011.3 |
| 20260508113726 | 42 | 60 | 0.0 | 1.7 | 0.00 | 0.07 | 0.05 | 92 | 1011.3 |
| 20260508113526 | 42 | 60 | 0.0 | 1.7 | 0.00 | 0.07 | 0.05 | 92 | 1011.2 |
| 20260508113325 | 42 | 60 | 0.0 | 1.7 | 0.00 | 0.07 | 0.05 | 92 | 1011.2 |
| 20260508113125 | 42 | 58 | 0.0 | 1.7 | 0.00 | 0.07 | 0.05 | 92 | 1011.2 |
| 20260508112925 | 42 | 58 | 0.0 | 1.7 | 0.00 | 0.07 | 0.05 | 92 | 1011.2 |
| 20260508112724 | 41 | 286 | 0.0 | 1.7 | 0.00 | 0.07 | 0.05 | 92 | 1011.2 |
| 20260508112524 | 41 | 275 | 0.0 | 1.7 | 0.01 | 0.07 | 0.05 | 92 | 1011.2 |
| 20260508112324 | 41 | 270 | 0.0 | 1.7 | 0.01 | 0.07 | 0.05 | 92 | 1011.1 |
| 20260508112124 | 41 | 241 | 0.0 | 1.7 | 0.01 | 0.07 | 0.05 | 92 | 1011.0 |
| 20260508111923 | 41 | 221 | 0.0 | 1.7 | 0.01 | 0.07 | 0.05 | 92 | 1011.1 |
| 20260508111723 | 41 | 235 | 0.0 | 1.7 | 0.01 | 0.07 | 0.05 | 92 | 1011.0 |
| 20260508111523 | 41 | 232 | 0.0 | 1.7 | 0.01 | 0.07 | 0.05 | 92 | 1011.0 |
| 20260508111322 | 41 | 224 | 0.0 | 1.7 | 0.01 | 0.07 | 0.05 | 92 | 1011.0 |
| 20260508111122 | 41 | 224 | 0.0 | 1.7 | 0.01 | 0.07 | 0.05 | 92 | 1011.0 |
| 20260508110922 | 41 | 224 | 0.0 | 1.7 | 0.01 | 0.07 | 0.05 | 92 | 1011.0 |
| 20260508110721 | 41 | 223 | 0.0 | 2.6 | 0.01 | 0.07 | 0.05 | 92 | 1011.0 |
| 20260508110521 | 41 | 204 | 0.0 | 2.6 | 0.01 | 0.07 | 0.05 | 92 | 1010.9 |
| 20260508110321 | 41 | 127 | 0.0 | 2.6 | 0.02 | 0.07 | 0.05 | 92 | 1010.9 |
| 20260508110121 | 41 | 127 | 0.0 | 3.5 | 0.02 | 0.07 | 0.05 | 92 | 1010.9 |
| 20260508105920 | 41 | 189 | 0.9 | 3.5 | 0.02 | 0.07 | 0.05 | 92 | 1010.9 |
| 20260508105720 | 41 | 219 | 0.9 | 3.5 | 0.02 | 0.07 | 0.05 | 92 | 1010.9 |
| 20260508105520 | 40 | 183 | 0.9 | 3.5 | 0.03 | 0.07 | 0.05 | 92 | 1010.9 |
| 20260508105319 | 40 | 187 | 0.9 | 3.5 | 0.03 | 0.07 | 0.05 | 92 | 1010.9 |
| 20260508105119 | 40 | 141 | 0.0 | 2.6 | 0.03 | 0.07 | 0.05 | 92 | 1010.8 |
| 20260508104919 | 40 | 134 | 0.0 | 3.5 | 0.04 | 0.07 | 0.05 | 92 | 1010.8 |
| 20260508104718 | 40 | 206 | 0.9 | 3.5 | 0.04 | 0.07 | 0.05 | 92 | 1010.8 |
| 20260508104518 | 40 | 187 | 0.9 | 3.5 | 0.04 | 0.07 | 0.05 | 92 | 1010.7 |
| 20260508104318 | 40 | 200 | 0.9 | 3.5 | 0.04 | 0.07 | 0.05 | 92 | 1010.7 |
| 20260508104118 | 40 | 216 | 0.9 | 2.6 | 0.04 | 0.07 | 0.05 | 92 | 1010.8 |
| 20260508103917 | 40 | 203 | 0.9 | 3.5 | 0.04 | 0.07 | 0.05 | 92 | 1010.7 |
| 20260508103717 | 40 | 202 | 0.9 | 3.5 | 0.04 | 0.07 | 0.05 | 91 | 1010.6 |
| 20260508103517 | 40 | 151 | 0.9 | 4.3 | 0.04 | 0.07 | 0.05 | 91 | 1010.7 |
| 20260508103316 | 40 | 270 | 0.9 | 4.3 | 0.04 | 0.07 | 0.05 | 91 | 1010.7 |
| 20260508103116 | 40 | 211 | 0.9 | 4.3 | 0.04 | 0.07 | 0.05 | 91 | 1010.7 |
| 20260508102916 | 40 | 209 | 0.9 | 4.3 | 0.04 | 0.07 | 0.05 | 91 | 1010.7 |
| 20260508102715 | 40 | 317 | 0.0 | 3.5 | 0.04 | 0.07 | 0.05 | 91 | 1010.6 |
| 20260508102515 | 40 | 161 | 0.9 | 5.2 | 0.03 | 0.06 | 0.04 | 91 | 1010.7 |
| 20260508102315 | 40 | 266 | 0.9 | 5.2 | 0.03 | 0.06 | 0.04 | 91 | 1010.7 |
| 20260508102115 | 40 | 255 | 0.9 | 5.2 | 0.03 | 0.06 | 0.04 | 91 | 1010.8 |
| 20260508101914 | 40 | 114 | 0.9 | 5.2 | 0.03 | 0.06 | 0.04 | 91 | 1010.7 |
| 20260508101714 | 40 | 103 | 0.9 | 5.2 | 0.03 | 0.06 | 0.04 | 90 | 1010.7 |
| 20260508101514 | 40 | 150 | 1.7 | 5.2 | 0.03 | 0.06 | 0.04 | 90 | 1010.7 |
| 20260508101313 | 40 | 191 | 1.7 | 5.2 | 0.03 | 0.06 | 0.04 | 90 | 1010.7 |
| 20260508101113 | 40 | 208 | 1.7 | 5.2 | 0.03 | 0.06 | 0.04 | 90 | 1010.7 |
| 20260508100913 | 41 | 226 | 0.9 | 4.3 | 0.03 | 0.06 | 0.04 | 90 | 1010.8 |
| 20260508100712 | 41 | 244 | 0.9 | 4.3 | 0.03 | 0.06 | 0.04 | 90 | 1010.9 |
| 20260508100512 | 41 | 354 | 0.9 | 4.3 | 0.02 | 0.05 | 0.03 | 90 | 1010.8 |
| 20260508100312 | 41 | 47 | 1.7 | 4.3 | 0.02 | 0.05 | 0.03 | 90 | 1010.9 |
| 20260508100112 | 41 | 147 | 1.7 | 4.3 | 0.02 | 0.05 | 0.03 | 90 | 1011.0 |
| 20260508095911 | 41 | 184 | 1.7 | 4.3 | 0.02 | 0.05 | 0.03 | 90 | 1010.9 |
| 20260508095711 | 41 | 338 | 0.9 | 4.3 | 0.01 | 0.04 | 0.02 | 91 | 1011.1 |
| 20260508095511 | 41 | 309 | 0.0 | 1.7 | 0.01 | 0.04 | 0.02 | 91 | 1011.1 |
| 20260508095310 | 41 | 50 | 0.0 | 1.7 | 0.01 | 0.04 | 0.02 | 90 | 1011.0 |
| 20260508095110 | 41 | 13 | 0.0 | 1.7 | 0.00 | 0.03 | 0.01 | 90 | 1011.0 |
| 20260508094910 | 41 | 25 | 0.0 | 1.7 | 0.00 | 0.03 | 0.01 | 90 | 1011.0 |
| 20260508094709 | 41 | 31 | 0.0 | 2.6 | 0.00 | 0.03 | 0.01 | 90 | 1010.9 |
| 20260508094509 | 41 | 272 | 0.0 | 2.6 | 0.00 | 0.03 | 0.01 | 90 | 1010.9 |
| 20260508094309 | 41 | 221 | 0.0 | 2.6 | 0.00 | 0.03 | 0.01 | 90 | 1010.8 |
| 20260508094109 | 41 | 164 | 0.0 | 2.6 | 0.00 | 0.03 | 0.01 | 90 | 1010.7 |
| 20260508093908 | 41 | 186 | 0.0 | 2.6 | 0.00 | 0.03 | 0.01 | 90 | 1010.6 |
| 20260508093708 | 41 | 229 | 0.0 | 2.6 | 0.00 | 0.03 | 0.01 | 89 | 1010.7 |
| 20260508093508 | 41 | 0 | 0.0 | 2.6 | 0.00 | 0.03 | 0.01 | 89 | 1010.6 |
| 20260508093307 | 41 | 229 | 0.0 | 2.6 | 0.00 | 0.03 | 0.01 | 89 | 1010.5 |
| 20260508093107 | 41 | 229 | 0.0 | 2.6 | 0.00 | 0.03 | 0.01 | 89 | 1010.5 |
| 20260508092907 | 41 | 229 | 0.0 | 1.7 | 0.00 | 0.03 | 0.01 | 89 | 1010.5 |
| 20260508092706 | 41 | 227 | 0.0 | 1.7 | 0.00 | 0.03 | 0.01 | 89 | 1010.6 |
| 20260508092506 | 41 | 0 | 0.0 | 1.7 | 0.01 | 0.03 | 0.01 | 89 | 1010.5 |
| 20260508092313 | 41 | 0 | 0.0 | 1.7 | 0.01 | 0.03 | 0.01 | 89 | 1010.6 |
| 20260508092105 | 41 | 217 | 0.0 | 1.7 | 0.01 | 0.03 | 0.01 | 88 | 1010.6 |
| 20260508091905 | 41 | 216 | 0.0 | 3.5 | 0.01 | 0.03 | 0.01 | 88 | 1010.6 |
| 20260508091705 | 42 | 216 | 0.0 | 4.3 | 0.01 | 0.03 | 0.01 | 88 | 1010.5 |
| 20260508091505 | 42 | 327 | 0.0 | 4.3 | 0.01 | 0.03 | 0.01 | 88 | 1010.6 |
| 20260508091304 | 42 | 100 | 0.9 | 4.3 | 0.01 | 0.03 | 0.01 | 88 | 1010.6 |
| 20260508091104 | 42 | 261 | 0.9 | 4.3 | 0.01 | 0.03 | 0.01 | 88 | 1010.6 |
| 20260508090904 | 42 | 222 | 0.9 | 3.5 | 0.01 | 0.03 | 0.01 | 88 | 1010.6 |
| 20260508090703 | 42 | 223 | 0.0 | 5.2 | 0.01 | 0.03 | 0.01 | 88 | 1010.6 |
| 20260508090503 | 42 | 262 | 0.0 | 5.2 | 0.01 | 0.03 | 0.01 | 88 | 1010.6 |
| 20260508090303 | 42 | 153 | 0.9 | 5.2 | 0.01 | 0.03 | 0.01 | 88 | 1010.6 |
| 20260508085902 | 41 | 135 | 0.9 | 3.5 | 0.01 | 0.03 | 0.01 | 88 | 1010.7 |
| 20260508085702 | 41 | 135 | 0.9 | 3.5 | 0.01 | 0.03 | 0.01 | 88 | 1010.8 |
| 20260508085502 | 41 | 126 | 0.9 | 2.6 | 0.01 | 0.03 | 0.01 | 88 | 1010.7 |
| 20260508085301 | 41 | 134 | 0.0 | 2.6 | 0.01 | 0.03 | 0.01 | 88 | 1010.7 |
| 20260508085101 | 41 | 119 | 0.0 | 2.6 | 0.01 | 0.03 | 0.01 | 88 | 1010.6 |
| 20260508084901 | 41 | 119 | 0.0 | 2.6 | 0.01 | 0.03 | 0.01 | 88 | 1010.6 |
| 20260508084700 | 41 | 119 | 0.0 | 2.6 | 0.01 | 0.03 | 0.01 | 89 | 1010.6 |
| 20260508084500 | 41 | 134 | 0.9 | 2.6 | 0.01 | 0.03 | 0.01 | 89 | 1010.6 |
| 20260508084300 | 41 | 225 | 0.0 | 2.6 | 0.01 | 0.03 | 0.01 | 89 | 1010.6 |
| 20260508084100 | 41 | 184 | 0.0 | 2.6 | 0.01 | 0.03 | 0.01 | 89 | 1010.6 |
| 20260508083859 | 41 | 24 | 0.0 | 2.6 | 0.01 | 0.03 | 0.01 | 89 | 1010.7 |
| 20260508083659 | 41 | 262 | 0.0 | 2.6 | 0.01 | 0.03 | 0.01 | 89 | 1010.7 |
| 20260508083459 | 41 | 248 | 0.0 | 3.5 | 0.01 | 0.03 | 0.01 | 89 | 1010.6 |
| 20260508083258 | 41 | 241 | 0.0 | 3.5 | 0.01 | 0.03 | 0.01 | 89 | 1010.6 |
| 20260508083058 | 41 | 95 | 0.0 | 3.5 | 0.01 | 0.03 | 0.01 | 89 | 1010.6 |
| 20260508082858 | 41 | 153 | 0.0 | 3.5 | 0.01 | 0.03 | 0.01 | 89 | 1010.6 |
| 20260508082657 | 41 | 200 | 0.0 | 3.5 | 0.01 | 0.03 | 0.01 | 89 | 1010.6 |
| 20260508082457 | 41 | 238 | 0.0 | 1.7 | 0.00 | 0.02 | 0.00 | 89 | 1010.7 |
| 20260508082257 | 41 | 254 | 0.0 | 2.6 | 0.00 | 0.02 | 0.00 | 89 | 1010.7 |
| 20260508082056 | 41 | 254 | 0.0 | 2.6 | 0.00 | 0.02 | 0.00 | 89 | 1010.6 |
| 20260508081856 | 41 | 254 | 0.0 | 2.6 | 0.00 | 0.02 | 0.00 | 88 | 1010.6 |
| 20260508081656 | 41 | 270 | 0.0 | 2.6 | 0.00 | 0.02 | 0.00 | 88 | 1010.5 |
| 20260508081456 | 41 | 298 | 0.0 | 3.5 | 0.00 | 0.02 | 0.00 | 88 | 1010.5 |
| 20260508081255 | 41 | 47 | 0.0 | 3.5 | 0.00 | 0.02 | 0.00 | 88 | 1010.5 |
| 20260508081055 | 41 | 47 | 0.0 | 3.5 | 0.00 | 0.02 | 0.00 | 88 | 1010.5 |
| 20260508080855 | 42 | 84 | 0.9 | 3.5 | 0.00 | 0.02 | 0.00 | 88 | 1010.6 |
| 20260508080654 | 42 | 211 | 0.9 | 3.5 | 0.00 | 0.02 | 0.00 | 88 | 1010.6 |
| 20260508080454 | 42 | 187 | 0.9 | 3.5 | 0.00 | 0.02 | 0.00 | 88 | 1010.7 |
| 20260508080254 | 42 | 216 | 0.0 | 3.5 | 0.00 | 0.02 | 0.00 | 88 | 1010.7 |
| 20260508080053 | 42 | 237 | 0.0 | 4.3 | 0.00 | 0.02 | 0.00 | 88 | 1010.7 |
| 20260508075853 | 42 | 233 | 0.0 | 4.3 | 0.00 | 0.02 | 0.00 | 88 | 1010.7 |
| 20260508075653 | 42 | 213 | 0.9 | 4.3 | 0.00 | 0.02 | 0.00 | 88 | 1010.7 |
| 20260508075453 | 42 | 182 | 0.9 | 4.3 | 0.00 | 0.02 | 0.00 | 88 | 1010.8 |
| 20260508075252 | 42 | 200 | 0.9 | 4.3 | 0.00 | 0.02 | 0.00 | 88 | 1010.8 |
| 20260508075052 | 42 | 141 | 0.0 | 3.5 | 0.00 | 0.02 | 0.00 | 88 | 1010.7 |
| 20260508074852 | 42 | 158 | 0.9 | 5.2 | 0.00 | 0.02 | 0.00 | 88 | 1010.8 |
| 20260508074651 | 42 | 264 | 0.9 | 5.2 | 0.00 | 0.02 | 0.00 | 87 | 1010.7 |
| 20260508074451 | 42 | 223 | 0.9 | 8.7 | 0.00 | 0.02 | 0.00 | 87 | 1010.7 |
| 20260508074251 | 42 | 226 | 0.9 | 9.6 | 0.00 | 0.02 | 0.00 | 87 | 1010.6 |
| 20260508074050 | 42 | 212 | 1.7 | 9.6 | 0.00 | 0.02 | 0.00 | 87 | 1010.6 |
| 20260508073850 | 42 | 217 | 1.7 | 9.6 | 0.00 | 0.02 | 0.00 | 87 | 1010.6 |
| 20260508073650 | 42 | 208 | 2.6 | 9.6 | 0.00 | 0.02 | 0.00 | 87 | 1010.7 |
| 20260508073450 | 42 | 179 | 1.7 | 9.6 | 0.00 | 0.02 | 0.00 | 87 | 1010.8 |
| 20260508073249 | 42 | 183 | 0.9 | 7.0 | 0.00 | 0.02 | 0.00 | 86 | 1010.9 |
| 20260508073049 | 42 | 220 | 1.7 | 7.8 | 0.00 | 0.02 | 0.00 | 86 | 1011.0 |
| 20260508072849 | 42 | 200 | 0.9 | 8.7 | 0.00 | 0.02 | 0.00 | 86 | 1011.0 |
| 20260508072648 | 42 | 194 | 1.7 | 8.7 | 0.00 | 0.02 | 0.00 | 85 | 1011.0 |
| 20260508072448 | 42 | 229 | 1.7 | 8.7 | 0.00 | 0.02 | 0.00 | 84 | 1011.0 |
| 20260508072248 | 42 | 230 | 1.7 | 8.7 | 0.00 | 0.02 | 0.00 | 84 | 1011.0 |
| 20260508072047 | 42 | 185 | 1.7 | 8.7 | 0.00 | 0.02 | 0.00 | 84 | 1011.0 |
| 20260508071847 | 42 | 165 | 1.7 | 5.2 | 0.00 | 0.02 | 0.00 | 85 | 1011.0 |
| 20260508071647 | 42 | 138 | 1.7 | 5.2 | 0.00 | 0.02 | 0.00 | 85 | 1011.1 |
| 20260508071447 | 42 | 139 | 0.9 | 4.3 | 0.00 | 0.02 | 0.00 | 86 | 1011.0 |
| 20260508071246 | 42 | 232 | 0.9 | 4.3 | 0.00 | 0.02 | 0.00 | 86 | 1011.0 |
| 20260508071046 | 42 | 239 | 0.9 | 4.3 | 0.00 | 0.02 | 0.00 | 86 | 1011.1 |
| 20260508070846 | 42 | 162 | 0.9 | 3.5 | 0.00 | 0.02 | 0.00 | 86 | 1011.1 |
| 20260508070645 | 42 | 144 | 0.9 | 2.6 | 0.00 | 0.02 | 0.00 | 86 | 1011.0 |
| 20260508070445 | 42 | 172 | 0.9 | 1.7 | 0.00 | 0.02 | 0.00 | 86 | 1011.1 |
| 20260508070245 | 42 | 226 | 0.0 | 1.7 | 0.00 | 0.02 | 0.00 | 86 | 1011.1 |
| 20260508070044 | 42 | 226 | 0.0 | 1.7 | 0.00 | 0.02 | 0.00 | 86 | 1011.1 |
| 20260508065844 | 42 | 226 | 0.0 | 1.7 | 0.00 | 0.02 | 0.00 | 86 | 1011.0 |
| 20260508065644 | 42 | 226 | 0.0 | 1.7 | 0.00 | 0.02 | 0.00 | 86 | 1011.0 |
| 20260508065444 | 42 | 226 | 0.0 | 1.7 | 0.00 | 0.02 | 0.00 | 86 | 1011.0 |
| 20260508065243 | 42 | 227 | 0.0 | 1.7 | 0.00 | 0.02 | 0.00 | 86 | 1011.0 |
| 20260508065043 | 42 | 227 | 0.0 | 1.7 | 0.00 | 0.02 | 0.00 | 86 | 1011.0 |
| 20260508064843 | 42 | 227 | 0.0 | 2.6 | 0.00 | 0.02 | 0.00 | 86 | 1011.0 |
| 20260508064642 | 42 | 227 | 0.0 | 2.6 | 0.00 | 0.02 | 0.00 | 86 | 1011.0 |
| 20260508064442 | 42 | 227 | 0.0 | 2.6 | 0.00 | 0.02 | 0.00 | 86 | 1011.0 |
| 20260508064242 | 42 | 225 | 0.9 | 2.6 | 0.00 | 0.02 | 0.00 | 86 | 1011.0 |
| 20260508064041 | 42 | 234 | 0.9 | 2.6 | 0.00 | 0.02 | 0.00 | 86 | 1011.0 |
| 20260508063841 | 42 | 229 | 0.9 | 2.6 | 0.00 | 0.02 | 0.00 | 86 | 1011.1 |
| 20260508063641 | 42 | 211 | 0.0 | 2.6 | 0.00 | 0.02 | 0.00 | 86 | 1011.1 |
| 20260508063441 | 42 | 235 | 0.0 | 1.7 | 0.00 | 0.02 | 0.00 | 86 | 1011.1 |
| 20260508063240 | 42 | 235 | 0.0 | 1.7 | 0.00 | 0.02 | 0.00 | 86 | 1011.0 |
| 20260508063040 | 42 | 235 | 0.0 | 1.7 | 0.00 | 0.02 | 0.00 | 86 | 1011.1 |
| 20260508062840 | 42 | 235 | 0.0 | 1.7 | 0.00 | 0.02 | 0.00 | 86 | 1011.1 |
| 20260508062639 | 42 | 0 | 0.0 | 1.7 | 0.00 | 0.02 | 0.00 | 86 | 1011.1 |
| 20260508062439 | 42 | 235 | 0.0 | 1.7 | 0.00 | 0.02 | 0.00 | 86 | 1011.2 |
| 20260508062239 | 42 | 235 | 0.0 | 1.7 | 0.00 | 0.02 | 0.00 | 86 | 1011.0 |
| 20260508062038 | 42 | 235 | 0.0 | 1.7 | 0.00 | 0.02 | 0.00 | 86 | 1011.1 |
| 20260508061838 | 42 | 235 | 0.0 | 1.7 | 0.00 | 0.02 | 0.00 | 86 | 1011.1 |
| 20260508061638 | 42 | 235 | 0.0 | 1.7 | 0.00 | 0.02 | 0.00 | 86 | 1011.1 |
| 20260508061437 | 42 | 235 | 0.0 | 1.7 | 0.00 | 0.02 | 0.00 | 86 | 1011.2 |
| 20260508061237 | 42 | 235 | 0.0 | 1.7 | 0.00 | 0.02 | 0.00 | 86 | 1011.2 |
| 20260508061037 | 42 | 235 | 0.0 | 1.7 | 0.00 | 0.02 | 0.00 | 86 | 1011.1 |
| 20260508060837 | 42 | 222 | 0.0 | 1.7 | 0.00 | 0.02 | 0.00 | 86 | 1011.2 |
| 20260508060636 | 42 | 197 | 0.0 | 1.7 | 0.00 | 0.02 | 0.00 | 86 | 1011.3 |
| 20260508060436 | 42 | 272 | 0.0 | 2.6 | 0.00 | 0.02 | 0.00 | 86 | 1011.2 |
| 20260508060236 | 42 | 299 | 0.0 | 4.3 | 0.00 | 0.02 | 0.00 | 86 | 1011.2 |
| 20260508060035 | 42 | 188 | 0.9 | 4.3 | 0.00 | 0.02 | 0.00 | 85 | 1011.2 |
| 20260508055835 | 42 | 136 | 0.0 | 4.3 | 0.00 | 0.02 | 0.00 | 85 | 1011.2 |
| 20260508055635 | 42 | 200 | 0.9 | 4.3 | 0.00 | 0.02 | 0.00 | 85 | 1011.3 |
| 20260508055434 | 42 | 206 | 0.9 | 4.3 | 0.00 | 0.02 | 0.00 | 85 | 1011.2 |
| 20260508055234 | 42 | 173 | 0.0 | 2.6 | 0.00 | 0.02 | 0.00 | 85 | 1011.2 |
| 20260508055034 | 42 | 177 | 0.9 | 2.6 | 0.00 | 0.02 | 0.00 | 85 | 1011.3 |
| 20260508054834 | 42 | 218 | 0.9 | 2.6 | 0.00 | 0.02 | 0.00 | 85 | 1011.3 |
| 20260508054633 | 42 | 271 | 0.9 | 2.6 | 0.00 | 0.02 | 0.00 | 85 | 1011.3 |
| 20260508054433 | 42 | 271 | 0.9 | 2.6 | 0.00 | 0.02 | 0.00 | 85 | 1011.3 |
| 20260508054233 | 42 | 264 | 0.0 | 2.6 | 0.00 | 0.02 | 0.00 | 85 | 1011.3 |
| 20260508054032 | 42 | 218 | 0.0 | 1.7 | 0.00 | 0.02 | 0.00 | 85 | 1011.3 |
| 20260508053832 | 42 | 185 | 0.0 | 2.6 | 0.00 | 0.02 | 0.00 | 85 | 1011.3 |
| 20260508053632 | 42 | 108 | 0.0 | 2.6 | 0.00 | 0.02 | 0.00 | 85 | 1011.3 |
| 20260508053431 | 42 | 108 | 0.0 | 2.6 | 0.00 | 0.02 | 0.00 | 85 | 1011.2 |
| 20260508053231 | 42 | 131 | 0.0 | 4.3 | 0.00 | 0.02 | 0.00 | 85 | 1011.4 |
| 20260508053031 | 42 | 104 | 0.9 | 4.3 | 0.00 | 0.02 | 0.00 | 85 | 1011.4 |
| 20260508052831 | 42 | 116 | 0.9 | 4.3 | 0.00 | 0.02 | 0.00 | 85 | 1011.5 |
| 20260508052630 | 42 | 219 | 0.9 | 4.3 | 0.00 | 0.02 | 0.00 | 85 | 1011.4 |
| 20260508052430 | 42 | 131 | 0.9 | 4.3 | 0.00 | 0.02 | 0.00 | 85 | 1011.5 |
| 20260508052230 | 42 | 335 | 0.9 | 3.5 | 0.00 | 0.02 | 0.00 | 86 | 1011.5 |
| 20260508052029 | 42 | 41 | 0.0 | 4.3 | 0.00 | 0.02 | 0.00 | 86 | 1011.5 |
| 20260508051829 | 42 | 13 | 0.9 | 4.3 | 0.00 | 0.02 | 0.00 | 86 | 1011.4 |
| 20260508051629 | 42 | 246 | 0.0 | 4.3 | 0.00 | 0.02 | 0.00 | 86 | 1011.4 |
| 20260508051428 | 42 | 249 | 0.9 | 4.3 | 0.00 | 0.02 | 0.00 | 86 | 1011.4 |
| 20260508051228 | 42 | 301 | 0.9 | 4.3 | 0.00 | 0.02 | 0.00 | 86 | 1011.5 |
| 20260508051028 | 42 | 331 | 0.0 | 1.7 | 0.00 | 0.02 | 0.00 | 86 | 1011.5 |
| 20260508050828 | 42 | 312 | 0.0 | 1.7 | 0.00 | 0.02 | 0.00 | 86 | 1011.5 |
| 20260508050627 | 41 | 245 | 0.0 | 1.7 | 0.00 | 0.02 | 0.00 | 86 | 1011.5 |
| 20260508050427 | 41 | 180 | 0.9 | 1.7 | 0.00 | 0.02 | 0.00 | 87 | 1011.5 |
| 20260508050227 | 41 | 74 | 0.0 | 1.7 | 0.00 | 0.02 | 0.00 | 87 | 1011.5 |
| 20260508050026 | 41 | 249 | 0.0 | 1.7 | 0.00 | 0.02 | 0.00 | 87 | 1011.5 |
| 20260508045826 | 41 | 249 | 0.0 | 2.6 | 0.00 | 0.02 | 0.00 | 87 | 1011.5 |
| 20260508045626 | 41 | 250 | 0.0 | 3.5 | 0.00 | 0.02 | 0.00 | 87 | 1011.4 |
| 20260508045425 | 41 | 249 | 0.0 | 3.5 | 0.00 | 0.02 | 0.00 | 88 | 1011.4 |
| 20260508045225 | 41 | 246 | 0.0 | 3.5 | 0.00 | 0.02 | 0.00 | 88 | 1011.4 |
| 20260508045025 | 41 | 237 | 0.9 | 3.5 | 0.00 | 0.02 | 0.00 | 88 | 1011.4 |
| 20260508044825 | 41 | 212 | 0.0 | 3.5 | 0.00 | 0.02 | 0.00 | 88 | 1011.4 |
| 20260508044624 | 41 | 219 | 0.0 | 1.7 | 0.00 | 0.02 | 0.00 | 88 | 1011.4 |
| 20260508044424 | 41 | 219 | 0.0 | 2.6 | 0.00 | 0.02 | 0.00 | 88 | 1011.4 |
| 20260508044224 | 41 | 219 | 0.0 | 2.6 | 0.00 | 0.02 | 0.00 | 88 | 1011.4 |
| 20260508044023 | 41 | 219 | 0.0 | 2.6 | 0.00 | 0.02 | 0.00 | 88 | 1011.4 |
| 20260508043823 | 41 | 220 | 0.0 | 2.6 | 0.00 | 0.02 | 0.00 | 88 | 1011.4 |
| 20260508043623 | 41 | 256 | 0.0 | 2.6 | 0.00 | 0.02 | 0.00 | 88 | 1011.4 |
| 20260508043422 | 40 | 283 | 0.0 | 1.7 | 0.00 | 0.02 | 0.00 | 88 | 1011.4 |
| 20260508043222 | 40 | 283 | 0.0 | 0.9 | 0.00 | 0.02 | 0.00 | 88 | 1011.4 |
| 20260508043022 | 41 | 283 | 0.0 | 0.9 | 0.00 | 0.02 | 0.00 | 88 | 1011.3 |
| 20260508042822 | 41 | 283 | 0.0 | 0.9 | 0.00 | 0.02 | 0.00 | 88 | 1011.3 |
| 20260508042621 | 41 | 273 | 0.0 | 0.9 | 0.00 | 0.02 | 0.00 | 88 | 1011.3 |
| 20260508042421 | 41 | 182 | 0.0 | 0.9 | 0.00 | 0.02 | 0.00 | 88 | 1011.3 |
| 20260508042221 | 41 | 165 | 0.0 | 0.9 | 0.00 | 0.02 | 0.00 | 88 | 1011.3 |
| 20260508042020 | 41 | 184 | 0.0 | 1.7 | 0.00 | 0.02 | 0.00 | 88 | 1011.3 |
| 20260508041820 | 41 | 179 | 0.0 | 1.7 | 0.00 | 0.02 | 0.00 | 87 | 1011.4 |
| 20260508041620 | 41 | 150 | 0.0 | 1.7 | 0.00 | 0.02 | 0.00 | 87 | 1011.4 |
| 20260508041419 | 41 | 150 | 0.0 | 2.6 | 0.00 | 0.02 | 0.00 | 87 | 1011.4 |
| 20260508041219 | 41 | 157 | 0.0 | 3.5 | 0.00 | 0.02 | 0.00 | 87 | 1011.4 |
| 20260508041019 | 41 | 215 | 0.9 | 3.5 | 0.00 | 0.02 | 0.00 | 87 | 1011.4 |
| 20260508040819 | 41 | 238 | 0.9 | 4.3 | 0.00 | 0.02 | 0.00 | 87 | 1011.4 |
| 20260508040618 | 41 | 238 | 0.9 | 4.3 | 0.00 | 0.02 | 0.00 | 87 | 1011.4 |
| 20260508040418 | 41 | 219 | 0.9 | 4.3 | 0.00 | 0.02 | 0.00 | 87 | 1011.4 |
| 20260508040218 | 41 | 208 | 0.9 | 4.3 | 0.00 | 0.02 | 0.00 | 87 | 1011.4 |
| 20260508040017 | 41 | 218 | 0.9 | 4.3 | 0.00 | 0.02 | 0.00 | 86 | 1011.4 |
| 20260508035817 | 41 | 238 | 0.9 | 4.3 | 0.00 | 0.02 | 0.02 | 86 | 1011.4 |
| 20260508035617 | 41 | 228 | 0.9 | 4.3 | 0.00 | 0.02 | 0.02 | 86 | 1011.4 |
| 20260508035416 | 41 | 188 | 0.0 | 4.3 | 0.00 | 0.02 | 0.02 | 86 | 1011.4 |
| 20260508035216 | 41 | 205 | 0.9 | 3.5 | 0.00 | 0.02 | 0.02 | 86 | 1011.3 |
| 20260508035016 | 40 | 220 | 0.0 | 3.5 | 0.00 | 0.02 | 0.02 | 86 | 1011.4 |
| 20260508034816 | 40 | 217 | 0.0 | 3.5 | 0.00 | 0.02 | 0.02 | 86 | 1011.3 |
| 20260508034615 | 40 | 234 | 0.0 | 1.7 | 0.00 | 0.02 | 0.02 | 86 | 1011.3 |
| 20260508034415 | 40 | 234 | 0.0 | 1.7 | 0.00 | 0.02 | 0.02 | 86 | 1011.3 |
| 20260508034215 | 40 | 234 | 0.0 | 1.7 | 0.00 | 0.02 | 0.02 | 86 | 1011.3 |
| 20260508034014 | 40 | 234 | 0.0 | 1.7 | 0.00 | 0.02 | 0.02 | 86 | 1011.3 |
| 20260508033814 | 40 | 234 | 0.0 | 1.7 | 0.00 | 0.02 | 0.02 | 86 | 1011.3 |
| 20260508033614 | 40 | 230 | 0.0 | 2.6 | 0.00 | 0.02 | 0.02 | 86 | 1011.3 |
| 20260508033413 | 40 | 226 | 0.0 | 2.6 | 0.00 | 0.02 | 0.02 | 86 | 1011.3 |
| 20260508033213 | 40 | 220 | 0.0 | 2.6 | 0.00 | 0.02 | 0.02 | 86 | 1011.2 |
| 20260508033013 | 40 | 179 | 0.0 | 2.6 | 0.00 | 0.02 | 0.02 | 86 | 1011.2 |
| 20260508032813 | 40 | 192 | 0.0 | 2.6 | 0.00 | 0.02 | 0.02 | 86 | 1011.2 |
| 20260508032612 | 40 | 249 | 0.0 | 2.6 | 0.00 | 0.02 | 0.02 | 86 | 1011.3 |
| 20260508032412 | 40 | 245 | 0.0 | 2.6 | 0.00 | 0.02 | 0.02 | 86 | 1011.3 |
| 20260508032212 | 40 | 215 | 0.0 | 2.6 | 0.00 | 0.02 | 0.02 | 86 | 1011.3 |
| 20260508032011 | 40 | 221 | 0.9 | 2.6 | 0.00 | 0.02 | 0.02 | 86 | 1011.3 |
| 20260508031811 | 40 | 179 | 0.0 | 1.7 | 0.00 | 0.02 | 0.02 | 86 | 1011.4 |
| 20260508031611 | 40 | 144 | 0.0 | 1.7 | 0.00 | 0.02 | 0.02 | 86 | 1011.3 |
| 20260508031410 | 40 | 145 | 0.0 | 1.7 | 0.00 | 0.02 | 0.02 | 86 | 1011.3 |
| 20260508031210 | 40 | 263 | 0.0 | 1.7 | 0.00 | 0.02 | 0.02 | 86 | 1011.3 |
| 20260508031010 | 40 | 0 | 0.0 | 2.6 | 0.00 | 0.02 | 0.02 | 86 | 1011.3 |
| 20260508030809 | 40 | 0 | 0.0 | 2.6 | 0.00 | 0.02 | 0.02 | 86 | 1011.4 |
| 20260508030609 | 40 | 0 | 0.0 | 2.6 | 0.00 | 0.02 | 0.02 | 86 | 1011.3 |
| 20260508030409 | 40 | 145 | 0.0 | 2.6 | 0.00 | 0.02 | 0.02 | 86 | 1011.3 |
| 20260508030209 | 40 | 154 | 0.0 | 2.6 | 0.00 | 0.02 | 0.02 | 86 | 1011.4 |
| 20260508030008 | 40 | 231 | 0.0 | 1.7 | 0.00 | 0.02 | 0.02 | 86 | 1011.4 |
| 20260508025808 | 40 | 231 | 0.0 | 1.7 | 0.00 | 0.02 | 0.02 | 86 | 1011.4 |
| 20260508025608 | 40 | 231 | 0.0 | 1.7 | 0.00 | 0.02 | 0.02 | 86 | 1011.4 |
| 20260508025407 | 40 | 231 | 0.0 | 1.7 | 0.00 | 0.02 | 0.02 | 86 | 1011.4 |
| 20260508025207 | 40 | 231 | 0.0 | 1.7 | 0.00 | 0.02 | 0.02 | 86 | 1011.5 |
| 20260508025007 | 40 | 231 | 0.0 | 1.7 | 0.00 | 0.02 | 0.02 | 86 | 1011.5 |
| 20260508024806 | 40 | 231 | 0.0 | 1.7 | 0.00 | 0.02 | 0.02 | 86 | 1011.4 |
| 20260508024606 | 41 | 231 | 0.0 | 1.7 | 0.00 | 0.02 | 0.02 | 86 | 1011.4 |
| 20260508024406 | 41 | 231 | 0.0 | 1.7 | 0.00 | 0.02 | 0.02 | 86 | 1011.4 |
| 20260508024206 | 41 | 226 | 0.0 | 1.7 | 0.00 | 0.02 | 0.02 | 86 | 1011.4 |
| 20260508024005 | 41 | 217 | 0.0 | 1.7 | 0.00 | 0.02 | 0.02 | 86 | 1011.4 |
| 20260508023805 | 41 | 216 | 0.0 | 1.7 | 0.00 | 0.02 | 0.02 | 86 | 1011.4 |
| 20260508023605 | 41 | 216 | 0.0 | 1.7 | 0.00 | 0.02 | 0.02 | 86 | 1011.4 |
| 20260508023404 | 41 | 217 | 0.0 | 2.6 | 0.00 | 0.02 | 0.02 | 86 | 1011.4 |
| 20260508023204 | 41 | 217 | 0.0 | 2.6 | 0.00 | 0.02 | 0.02 | 86 | 1011.4 |
| 20260508023004 | 41 | 212 | 0.0 | 2.6 | 0.00 | 0.02 | 0.02 | 86 | 1011.4 |
| 20260508022803 | 41 | 211 | 0.0 | 2.6 | 0.00 | 0.02 | 0.02 | 86 | 1011.4 |
| 20260508022603 | 41 | 223 | 0.0 | 1.7 | 0.00 | 0.02 | 0.02 | 85 | 1011.4 |
| 20260508022403 | 41 | 223 | 0.0 | 1.7 | 0.00 | 0.02 | 0.02 | 85 | 1011.4 |
| 20260508022203 | 41 | 219 | 0.0 | 1.7 | 0.00 | 0.02 | 0.02 | 85 | 1011.4 |
| 20260508022003 | 41 | 214 | 0.0 | 1.7 | 0.00 | 0.02 | 0.02 | 85 | 1011.4 |
| 20260508021802 | 41 | 214 | 0.0 | 1.7 | 0.00 | 0.02 | 0.02 | 85 | 1011.4 |
| 20260508021602 | 41 | 214 | 0.0 | 1.7 | 0.00 | 0.02 | 0.02 | 85 | 1011.3 |
| 20260508021401 | 41 | 214 | 0.0 | 1.7 | 0.00 | 0.02 | 0.02 | 85 | 1011.3 |
| 20260508021201 | 41 | 218 | 0.0 | 1.7 | 0.00 | 0.02 | 0.02 | 85 | 1011.3 |
| 20260508021001 | 41 | 217 | 0.0 | 1.7 | 0.00 | 0.02 | 0.02 | 85 | 1011.3 |
| 20260508020800 | 41 | 201 | 0.0 | 0.9 | 0.00 | 0.02 | 0.02 | 85 | 1011.3 |
| 20260508020600 | 41 | 201 | 0.0 | 0.9 | 0.00 | 0.02 | 0.02 | 84 | 1011.3 |
| 20260508020400 | 42 | 201 | 0.0 | 1.7 | 0.00 | 0.02 | 0.02 | 84 | 1011.3 |
| 20260508020200 | 42 | 201 | 0.0 | 1.7 | 0.00 | 0.02 | 0.02 | 84 | 1011.3 |
| 20260508015959 | 42 | 0 | 0.0 | 1.7 | 0.00 | 0.02 | 0.02 | 84 | 1011.3 |
| 20260508015759 | 42 | 210 | 0.0 | 1.7 | 0.00 | 0.02 | 0.02 | 84 | 1011.2 |
| 20260508015559 | 42 | 235 | 0.0 | 1.7 | 0.00 | 0.02 | 0.02 | 84 | 1011.2 |
| 20260508015358 | 42 | 261 | 0.0 | 1.7 | 0.00 | 0.02 | 0.02 | 84 | 1011.2 |
| 20260508015158 | 42 | 131 | 0.0 | 1.7 | 0.00 | 0.02 | 0.02 | 84 | 1011.2 |
| 20260508014958 | 42 | 131 | 0.0 | 1.7 | 0.00 | 0.02 | 0.02 | 83 | 1011.2 |
| 20260508014757 | 42 | 141 | 0.0 | 1.7 | 0.00 | 0.02 | 0.02 | 84 | 1011.1 |
| 20260508014557 | 42 | 159 | 0.0 | 1.7 | 0.00 | 0.02 | 0.02 | 83 | 1011.2 |
| 20260508014357 | 42 | 133 | 0.0 | 1.7 | 0.00 | 0.02 | 0.02 | 83 | 1011.1 |
| 20260508014157 | 42 | 53 | 0.0 | 1.7 | 0.00 | 0.02 | 0.02 | 83 | 1011.1 |
| 20260508013956 | 42 | 53 | 0.0 | 1.7 | 0.00 | 0.02 | 0.02 | 83 | 1011.2 |
| 20260508013756 | 42 | 53 | 0.0 | 1.7 | 0.00 | 0.02 | 0.02 | 83 | 1011.1 |
| 20260508013556 | 43 | 53 | 0.0 | 1.7 | 0.00 | 0.02 | 0.02 | 83 | 1011.1 |
| 20260508013355 | 43 | 51 | 0.0 | 1.7 | 0.00 | 0.02 | 0.02 | 83 | 1011.1 |
| 20260508013155 | 43 | 0 | 0.0 | 1.7 | 0.00 | 0.02 | 0.02 | 83 | 1011.1 |
| 20260508012955 | 43 | 48 | 0.0 | 1.7 | 0.00 | 0.02 | 0.02 | 83 | 1011.0 |
| 20260508012754 | 43 | 0 | 0.0 | 1.7 | 0.00 | 0.02 | 0.02 | 83 | 1011.1 |
| 20260508012554 | 43 | 48 | 0.0 | 1.7 | 0.00 | 0.02 | 0.02 | 83 | 1011.1 |
| 20260508012354 | 43 | 48 | 0.0 | 1.7 | 0.00 | 0.02 | 0.02 | 82 | 1011.1 |
| 20260508012154 | 43 | 48 | 0.0 | 1.7 | 0.00 | 0.02 | 0.02 | 82 | 1011.0 |
| 20260508011953 | 43 | 48 | 0.0 | 1.7 | 0.00 | 0.02 | 0.02 | 82 | 1011.0 |
| 20260508011753 | 43 | 48 | 0.0 | 1.7 | 0.00 | 0.02 | 0.02 | 82 | 1011.0 |